Observation data for Happy on 09/12/2017      Previous  Date       Current Mesonet Observations  Soil Data  Daily Summary Page  Observations in Plain Language
KHA2 120500Z 17005KT 17/12 A3017 RMK A01 T01700117  RH  071%=      5-min Rain = 0
KHA2 120501Z 17005KT 17/12 A3017 RMK A01 T01700117  RH  071%=      5-min Rain = 0
KHA2 120502Z 17005KT 17/12 A3017 RMK A01 T01700117  RH  071%=      5-min Rain = 0
KHA2 120503Z 17005KT 17/12 A3017 RMK A01 T01700116  RH  071%=      5-min Rain = 0
KHA2 120504Z 17005KT 17/12 A3017 RMK A01 T01690116  RH  071%=      5-min Rain = 0
KHA2 120505Z 18005KT 17/12 A3017 RMK A01 T01690116  RH  071%=      5-min Rain = 0
KHA2 120506Z 18005KT 17/12 A3017 RMK A01 T01680116  RH  071%=      5-min Rain = 0
KHA2 120507Z 18005KT 17/12 A3017 RMK A01 T01680116  RH  071%=      5-min Rain = 0
KHA2 120508Z 18005KT 17/12 A3017 RMK A01 T01680117  RH  072%=      5-min Rain = 0
KHA2 120509Z 18005KT 17/12 A3017 RMK A01 T01670117  RH  072%=      5-min Rain = 0
KHA2 120510Z 18005KT 17/12 A3017 RMK A01 T01680118  RH  072%=      5-min Rain = 0
KHA2 120511Z 18005KT 17/12 A3017 RMK A01 T01680117  RH  072%=      5-min Rain = 0
KHA2 120512Z 18005KT 17/12 A3017 RMK A01 T01700118  RH  072%=      5-min Rain = 0
KHA2 120513Z 18004KT 17/12 A3017 RMK A01 T01700117  RH  071%=      5-min Rain = 0
KHA2 120514Z 18004KT 17/12 A3017 RMK A01 T01700117  RH  071%=      5-min Rain = 0
KHA2 120515Z 18004KT 17/12 A3017 RMK A01 T01700117  RH  071%=      5-min Rain = 0
KHA2 120516Z 19004KT 17/12 A3017 RMK A01 T01700116  RH  071%=      5-min Rain = 0
KHA2 120517Z 19005KT 17/12 A3017 RMK A01 T01700117  RH  071%=      5-min Rain = 0
KHA2 120518Z 19005KT 17/12 A3017 RMK A01 T01700117  RH  071%=      5-min Rain = 0
KHA2 120519Z 19005KT 17/12 A3017 RMK A01 T01700115  RH  070%=      5-min Rain = 0
KHA2 120520Z 19005KT 17/11 A3017 RMK A01 T01690113  RH  069%=      5-min Rain = 0
KHA2 120521Z 20004KT 17/11 A3017 RMK A01 T01690112  RH  069%=      5-min Rain = 0
KHA2 120522Z 19004KT 17/11 A3017 RMK A01 T01680114  RH  070%=      5-min Rain = 0
KHA2 120523Z 19004KT 17/12 A3017 RMK A01 T01680115  RH  071%=      5-min Rain = 0
KHA2 120524Z 19004KT 17/11 A3017 RMK A01 T01670114  RH  071%=      5-min Rain = 0
KHA2 120525Z 20003KT 17/11 A3017 RMK A01 T01670114  RH  071%=      5-min Rain = 0
KHA2 120526Z 20003KT 17/12 A3017 RMK A01 T01680116  RH  071%=      5-min Rain = 0
KHA2 120527Z 20004KT 17/12 A3017 RMK A01 T01680117  RH  072%=      5-min Rain = 0
KHA2 120528Z 20004KT 17/12 A3017 RMK A01 T01680117  RH  072%=      5-min Rain = 0
KHA2 120529Z 20004KT 17/12 A3017 RMK A01 T01680116  RH  071%=      5-min Rain = 0
KHA2 120530Z 20004KT 17/12 A3017 RMK A01 T01670116  RH  072%=      5-min Rain = 0
KHA2 120531Z 20004KT 17/12 A3017 RMK A01 T01680116  RH  071%=      5-min Rain = 0
KHA2 120532Z 20004KT 17/12 A3017 RMK A01 T01680115  RH  071%=      5-min Rain = 0
KHA2 120533Z 20004KT 17/11 A3017 RMK A01 T01680114  RH  070%=      5-min Rain = 0
KHA2 120534Z 19004KT 17/11 A3017 RMK A01 T01690114  RH  070%=      5-min Rain = 0
KHA2 120535Z 19004KT 17/11 A3017 RMK A01 T01690114  RH  070%=      5-min Rain = 0
KHA2 120536Z 20004KT 17/11 A3016 RMK A01 T01680113  RH  070%=      5-min Rain = 0
KHA2 120537Z 20004KT 17/11 A3016 RMK A01 T01680114  RH  070%=      5-min Rain = 0
KHA2 120538Z 20004KT 17/11 A3016 RMK A01 T01680114  RH  070%=      5-min Rain = 0
KHA2 120539Z 20004KT 17/11 A3016 RMK A01 T01680113  RH  070%=      5-min Rain = 0
KHA2 120540Z 20004KT 17/11 A3016 RMK A01 T01680114  RH  070%=      5-min Rain = 0
KHA2 120541Z 20004KT 17/11 A3016 RMK A01 T01690113  RH  070%=      5-min Rain = 0
KHA2 120542Z 20004KT 17/11 A3016 RMK A01 T01690112  RH  069%=      5-min Rain = 0
KHA2 120543Z 20004KT 17/11 A3016 RMK A01 T01690113  RH  070%=      5-min Rain = 0
KHA2 120544Z 20004KT 17/11 A3016 RMK A01 T01680113  RH  070%=      5-min Rain = 0
KHA2 120545Z 21004KT 17/11 A3016 RMK A01 T01670113  RH  070%=      5-min Rain = 0
KHA2 120546Z 21004KT 17/11 A3016 RMK A01 T01670114  RH  071%=      5-min Rain = 0
KHA2 120547Z 21004KT 17/12 A3016 RMK A01 T01670115  RH  072%=      5-min Rain = 0
KHA2 120548Z 21004KT 17/12 A3016 RMK A01 T01680116  RH  071%=      5-min Rain = 0
KHA2 120549Z 22004KT 17/12 A3016 RMK A01 T01680115  RH  071%=      5-min Rain = 0
KHA2 120550Z 22004KT 17/12 A3016 RMK A01 T01690115  RH  071%=      5-min Rain = 0
KHA2 120551Z 22004KT 17/12 A3016 RMK A01 T01690115  RH  071%=      5-min Rain = 0
KHA2 120552Z 21004KT 17/12 A3016 RMK A01 T01700116  RH  070%=      5-min Rain = 0
KHA2 120553Z 22004KT 17/12 A3016 RMK A01 T01710115  RH  070%=      5-min Rain = 0
KHA2 120554Z 22004KT 17/12 A3016 RMK A01 T01710115  RH  069%=      5-min Rain = 0
KHA2 120555Z 22004KT 17/12 A3016 RMK A01 T01710115  RH  069%=      5-min Rain = 0
KHA2 120556Z 21004KT 17/12 A3016 RMK A01 T01710115  RH  069%=      5-min Rain = 0
KHA2 120557Z 22004KT 17/11 A3016 RMK A01 T01710114  RH  069%=      5-min Rain = 0
KHA2 120558Z 21004KT 17/11 A3016 RMK A01 T01700114  RH  070%=      5-min Rain = 0
KHA2 120559Z 21004KT 17/12 A3016 RMK A01 T01700115  RH  070%=      5-min Rain = 0
KHA2 120600Z 21004KT 17/11 A3016 RMK A01 T01690114  RH  070%=      5-min Rain = 0
KHA2 120601Z 21004KT 17/11 A3016 RMK A01 T01690114  RH  070%=      5-min Rain = 0
KHA2 120602Z 22003KT 17/11 A3016 RMK A01 T01690114  RH  070%=      5-min Rain = 0
KHA2 120603Z 22004KT 17/11 A3016 RMK A01 T01690113  RH  070%=      5-min Rain = 0
KHA2 120604Z 22004KT 17/11 A3016 RMK A01 T01690113  RH  070%=      5-min Rain = 0
KHA2 120605Z 22004KT 17/11 A3016 RMK A01 T01690114  RH  070%=      5-min Rain = 0
KHA2 120606Z 22004KT 17/11 A3016 RMK A01 T01690114  RH  070%=      5-min Rain = 0
KHA2 120607Z 22004KT 17/11 A3016 RMK A01 T01690114  RH  070%=      5-min Rain = 0
KHA2 120608Z 21004KT 17/11 A3016 RMK A01 T01680112  RH  070%=      5-min Rain = 0
KHA2 120609Z 21004KT 17/11 A3016 RMK A01 T01660111  RH  070%=      5-min Rain = 0
KHA2 120610Z 21004KT 17/11 A3016 RMK A01 T01650113  RH  071%=      5-min Rain = 0
KHA2 120611Z 22004KT 17/11 A3016 RMK A01 T01650112  RH  071%=      5-min Rain = 0
KHA2 120612Z 22004KT 16/11 A3016 RMK A01 T01640111  RH  071%=      5-min Rain = 0
KHA2 120613Z 22004KT 16/11 A3016 RMK A01 T01640112  RH  072%=      5-min Rain = 0
KHA2 120614Z 22004KT 16/11 A3016 RMK A01 T01640113  RH  072%=      5-min Rain = 0
KHA2 120615Z 22005KT 16/11 A3016 RMK A01 T01630112  RH  072%=      5-min Rain = 0
KHA2 120616Z 22005KT 16/11 A3016 RMK A01 T01630111  RH  071%=      5-min Rain = 0
KHA2 120617Z 21005KT 16/11 A3016 RMK A01 T01630111  RH  071%=      5-min Rain = 0
KHA2 120618Z 21005KT 16/11 A3016 RMK A01 T01620111  RH  071%=      5-min Rain = 0
KHA2 120619Z 21005KT 16/11 A3016 RMK A01 T01610110  RH  072%=      5-min Rain = 0
KHA2 120620Z 22005KT 16/11 A3016 RMK A01 T01600110  RH  072%=      5-min Rain = 0
KHA2 120621Z 22005KT 16/11 A3016 RMK A01 T01600110  RH  072%=      5-min Rain = 0
KHA2 120622Z 22005KT 16/11 A3016 RMK A01 T01600109  RH  071%=      5-min Rain = 0
KHA2 120623Z 22005KT 16/11 A3016 RMK A01 T01600110  RH  072%=      5-min Rain = 0
KHA2 120624Z 22005KT 16/11 A3016 RMK A01 T01600109  RH  072%=      5-min Rain = 0
KHA2 120625Z 22005KT 16/11 A3016 RMK A01 T01600110  RH  072%=      5-min Rain = 0
KHA2 120626Z 22005KT 16/11 A3016 RMK A01 T01600109  RH  072%=      5-min Rain = 0
KHA2 120627Z 22006KT 16/11 A3016 RMK A01 T01610110  RH  072%=      5-min Rain = 0
KHA2 120628Z 22005KT 16/11 A3016 RMK A01 T01610110  RH  072%=      5-min Rain = 0
KHA2 120629Z 22005KT 16/11 A3016 RMK A01 T01610110  RH  072%=      5-min Rain = 0
KHA2 120630Z 22005KT 16/11 A3016 RMK A01 T01620110  RH  071%=      5-min Rain = 0
KHA2 120631Z 22006KT 16/11 A3016 RMK A01 T01620111  RH  071%=      5-min Rain = 0
KHA2 120632Z 23006KT 16/11 A3016 RMK A01 T01620111  RH  072%=      5-min Rain = 0
KHA2 120633Z 23006KT 16/11 A3016 RMK A01 T01630112  RH  072%=      5-min Rain = 0
KHA2 120634Z 23006KT 16/11 A3016 RMK A01 T01620111  RH  072%=      5-min Rain = 0
KHA2 120635Z 23007KT 16/11 A3016 RMK A01 T01620112  RH  072%=      5-min Rain = 0
KHA2 120636Z 23006KT 16/11 A3016 RMK A01 T01610111  RH  072%=      5-min Rain = 0
KHA2 120637Z 23006KT 16/11 A3016 RMK A01 T01620111  RH  072%=      5-min Rain = 0
KHA2 120638Z 23007KT 16/11 A3016 RMK A01 T01620111  RH  072%=      5-min Rain = 0
KHA2 120639Z 23007KT 16/11 A3015 RMK A01 T01620111  RH  072%=      5-min Rain = 0
KHA2 120640Z 23007KT 16/11 A3015 RMK A01 T01620111  RH  072%=      5-min Rain = 0
KHA2 120641Z 23007KT 16/11 A3015 RMK A01 T01620110  RH  071%=      5-min Rain = 0
KHA2 120642Z 23007KT 16/11 A3015 RMK A01 T01620111  RH  071%=      5-min Rain = 0
KHA2 120643Z 23007KT 16/11 A3015 RMK A01 T01620111  RH  072%=      5-min Rain = 0
KHA2 120644Z 23007KT 16/11 A3015 RMK A01 T01620111  RH  072%=      5-min Rain = 0
KHA2 120645Z 23007KT 16/11 A3015 RMK A01 T01630111  RH  071%=      5-min Rain = 0
KHA2 120646Z 23007KT 16/11 A3015 RMK A01 T01630111  RH  071%=      5-min Rain = 0
KHA2 120647Z 24007KT 16/11 A3015 RMK A01 T01630110  RH  071%=      5-min Rain = 0
KHA2 120648Z 24008KT 16/11 A3015 RMK A01 T01630111  RH  071%=      5-min Rain = 0
KHA2 120649Z 24008KT 16/11 A3015 RMK A01 T01630110  RH  071%=      5-min Rain = 0
KHA2 120650Z 24007KT 16/11 A3015 RMK A01 T01630110  RH  071%=      5-min Rain = 0
KHA2 120651Z 24007KT 16/11 A3015 RMK A01 T01630110  RH  071%=      5-min Rain = 0
KHA2 120652Z 24007KT 16/11 A3015 RMK A01 T01630110  RH  071%=      5-min Rain = 0
KHA2 120653Z 23007KT 16/11 A3015 RMK A01 T01620110  RH  071%=      5-min Rain = 0
KHA2 120654Z 23008KT 16/11 A3015 RMK A01 T01610110  RH  071%=      5-min Rain = 0
KHA2 120655Z 23007KT 16/11 A3015 RMK A01 T01610109  RH  071%=      5-min Rain = 0
KHA2 120656Z 23007KT 16/11 A3015 RMK A01 T01600109  RH  072%=      5-min Rain = 0
KHA2 120657Z 23007KT 16/11 A3015 RMK A01 T01600109  RH  072%=      5-min Rain = 0
KHA2 120658Z 23007KT 16/11 A3015 RMK A01 T01600109  RH  072%=      5-min Rain = 0
KHA2 120659Z 23007KT 16/11 A3015 RMK A01 T01600109  RH  072%=      5-min Rain = 0
KHA2 120700Z 23008KT 16/11 A3015 RMK A01 T01590108  RH  072%=      5-min Rain = 0
KHA2 120701Z 23008KT 16/11 A3015 RMK A01 T01590108  RH  072%=      5-min Rain = 0
KHA2 120702Z 23007KT 16/11 A3015 RMK A01 T01600108  RH  071%=      5-min Rain = 0
KHA2 120703Z 23008KT 16/11 A3015 RMK A01 T01590107  RH  071%=      5-min Rain = 0
KHA2 120704Z 23007KT 16/11 A3015 RMK A01 T01590107  RH  071%=      5-min Rain = 0
KHA2 120705Z 23008KT 16/11 A3015 RMK A01 T01590107  RH  071%=      5-min Rain = 0
KHA2 120706Z 23008KT 16/11 A3015 RMK A01 T01590107  RH  071%=      5-min Rain = 0
KHA2 120707Z 23007KT 16/11 A3015 RMK A01 T01590107  RH  071%=      5-min Rain = 0
KHA2 120708Z 23007KT 16/11 A3015 RMK A01 T01590108  RH  072%=      5-min Rain = 0
KHA2 120709Z 23007KT 16/11 A3015 RMK A01 T01590108  RH  072%=      5-min Rain = 0
KHA2 120710Z 23007KT 16/11 A3015 RMK A01 T01590107  RH  071%=      5-min Rain = 0
KHA2 120711Z 23007KT 16/11 A3015 RMK A01 T01580107  RH  071%=      5-min Rain = 0
KHA2 120712Z 23007KT 16/11 A3015 RMK A01 T01580107  RH  072%=      5-min Rain = 0
KHA2 120713Z 23007KT 16/11 A3015 RMK A01 T01570107  RH  072%=      5-min Rain = 0
KHA2 120714Z 23006KT 16/11 A3015 RMK A01 T01570107  RH  072%=      5-min Rain = 0
KHA2 120715Z 23007KT 16/11 A3015 RMK A01 T01570107  RH  072%=      5-min Rain = 0
KHA2 120716Z 23007KT 16/11 A3015 RMK A01 T01570107  RH  072%=      5-min Rain = 0
KHA2 120717Z 23006KT 16/11 A3015 RMK A01 T01560106  RH  072%=      5-min Rain = 0
KHA2 120718Z 23006KT 16/11 A3015 RMK A01 T01550107  RH  073%=      5-min Rain = 0
KHA2 120719Z 23006KT 16/11 A3015 RMK A01 T01550106  RH  073%=      5-min Rain = 0
KHA2 120720Z 23006KT 16/11 A3015 RMK A01 T01550106  RH  073%=      5-min Rain = 0
KHA2 120721Z 22006KT 15/11 A3014 RMK A01 T01540106  RH  073%=      5-min Rain = 0
KHA2 120722Z 22006KT 15/11 A3014 RMK A01 T01540106  RH  073%=      5-min Rain = 0
KHA2 120723Z 22006KT 15/11 A3014 RMK A01 T01530106  RH  073%=      5-min Rain = 0
KHA2 120724Z 23006KT 15/11 A3014 RMK A01 T01530106  RH  073%=      5-min Rain = 0
KHA2 120725Z 23006KT 15/11 A3014 RMK A01 T01520106  RH  074%=      5-min Rain = 0
KHA2 120726Z 23006KT 15/11 A3014 RMK A01 T01520106  RH  074%=      5-min Rain = 0
KHA2 120727Z 22006KT 15/11 A3014 RMK A01 T01510106  RH  074%=      5-min Rain = 0
KHA2 120728Z 22006KT 15/11 A3014 RMK A01 T01520106  RH  074%=      5-min Rain = 0
KHA2 120729Z 22006KT 15/11 A3014 RMK A01 T01520106  RH  074%=      5-min Rain = 0
KHA2 120730Z 22006KT 15/11 A3014 RMK A01 T01520106  RH  074%=      5-min Rain = 0
KHA2 120731Z 22006KT 15/11 A3014 RMK A01 T01510106  RH  074%=      5-min Rain = 0
KHA2 120732Z 22006KT 15/11 A3014 RMK A01 T01510106  RH  074%=      5-min Rain = 0
KHA2 120733Z 22006KT 15/11 A3014 RMK A01 T01510105  RH  074%=      5-min Rain = 0
KHA2 120734Z 22006KT 15/11 A3014 RMK A01 T01510106  RH  074%=      5-min Rain = 0
KHA2 120735Z 22006KT 15/11 A3014 RMK A01 T01510105  RH  074%=      5-min Rain = 0
KHA2 120736Z 22006KT 15/11 A3014 RMK A01 T01510105  RH  074%=      5-min Rain = 0
KHA2 120737Z 22006KT 15/11 A3014 RMK A01 T01510106  RH  074%=      5-min Rain = 0
KHA2 120738Z 22006KT 15/11 A3014 RMK A01 T01510105  RH  074%=      5-min Rain = 0
KHA2 120739Z 22006KT 15/11 A3014 RMK A01 T01510106  RH  074%=      5-min Rain = 0
KHA2 120740Z 22007KT 15/11 A3014 RMK A01 T01510106  RH  074%=      5-min Rain = 0
KHA2 120741Z 22006KT 15/11 A3014 RMK A01 T01510106  RH  074%=      5-min Rain = 0
KHA2 120742Z 22006KT 15/11 A3014 RMK A01 T01510106  RH  074%=      5-min Rain = 0
KHA2 120743Z 23007KT 15/11 A3014 RMK A01 T01510106  RH  074%=      5-min Rain = 0
KHA2 120744Z 23007KT 15/11 A3014 RMK A01 T01510106  RH  074%=      5-min Rain = 0
KHA2 120745Z 23007KT 15/11 A3014 RMK A01 T01510105  RH  074%=      5-min Rain = 0
KHA2 120746Z 23007KT 15/11 A3014 RMK A01 T01520106  RH  074%=      5-min Rain = 0
KHA2 120747Z 23008KT 15/11 A3014 RMK A01 T01520106  RH  074%=      5-min Rain = 0
KHA2 120748Z 23007KT 15/11 A3014 RMK A01 T01520106  RH  074%=      5-min Rain = 0
KHA2 120749Z 23007KT 15/11 A3014 RMK A01 T01520106  RH  074%=      5-min Rain = 0
KHA2 120750Z 23008KT 15/11 A3014 RMK A01 T01530106  RH  074%=      5-min Rain = 0
KHA2 120751Z 23008KT 15/11 A3014 RMK A01 T01530106  RH  073%=      5-min Rain = 0
KHA2 120752Z 23008KT 15/11 A3014 RMK A01 T01530106  RH  073%=      5-min Rain = 0
KHA2 120753Z 24007KT 15/11 A3014 RMK A01 T01530106  RH  073%=      5-min Rain = 0
KHA2 120754Z 24007KT 15/11 A3014 RMK A01 T01530106  RH  073%=      5-min Rain = 0
KHA2 120755Z 24007KT 15/11 A3014 RMK A01 T01540106  RH  073%=      5-min Rain = 0
KHA2 120756Z 24007KT 16/11 A3014 RMK A01 T01550106  RH  073%=      5-min Rain = 0
KHA2 120757Z 24007KT 16/11 A3014 RMK A01 T01560106  RH  072%=      5-min Rain = 0
KHA2 120758Z 24007KT 16/11 A3014 RMK A01 T01570106  RH  072%=      5-min Rain = 0
KHA2 120759Z 24007KT 16/11 A3014 RMK A01 T01570106  RH  072%=      5-min Rain = 0
KHA2 120800Z 24008KT 16/11 A3014 RMK A01 T01570106  RH  072%=      5-min Rain = 0
KHA2 120801Z 24008KT 16/11 A3014 RMK A01 T01570106  RH  072%=      5-min Rain = 0
KHA2 120802Z 24008KT 16/11 A3014 RMK A01 T01580106  RH  072%=      5-min Rain = 0
KHA2 120803Z 24007KT 16/11 A3014 RMK A01 T01580106  RH  072%=      5-min Rain = 0
KHA2 120804Z 24007KT 16/11 A3014 RMK A01 T01580106  RH  072%=      5-min Rain = 0
KHA2 120805Z 24007KT 16/11 A3014 RMK A01 T01570106  RH  072%=      5-min Rain = 0
KHA2 120806Z 24007KT 16/11 A3014 RMK A01 T01580107  RH  072%=      5-min Rain = 0
KHA2 120807Z 24007KT 16/11 A3014 RMK A01 T01580106  RH  072%=      5-min Rain = 0
KHA2 120808Z 24007KT 16/11 A3014 RMK A01 T01570106  RH  072%=      5-min Rain = 0
KHA2 120809Z 24007KT 16/11 A3013 RMK A01 T01560106  RH  072%=      5-min Rain = 0
KHA2 120810Z 24007KT 16/11 A3013 RMK A01 T01560106  RH  072%=      5-min Rain = 0
KHA2 120811Z 24007KT 16/11 A3013 RMK A01 T01560106  RH  072%=      5-min Rain = 0
KHA2 120812Z 24007KT 16/11 A3013 RMK A01 T01560106  RH  072%=      5-min Rain = 0
KHA2 120813Z 24007KT 16/11 A3013 RMK A01 T01560106  RH  072%=      5-min Rain = 0
KHA2 120814Z 24007KT 16/11 A3013 RMK A01 T01560106  RH  072%=      5-min Rain = 0
KHA2 120815Z 24007KT 16/11 A3013 RMK A01 T01560106  RH  072%=      5-min Rain = 0
KHA2 120816Z 24007KT 16/11 A3013 RMK A01 T01560106  RH  072%=      5-min Rain = 0
KHA2 120817Z 24007KT 16/11 A3013 RMK A01 T01550106  RH  072%=      5-min Rain = 0
KHA2 120818Z 24007KT 16/11 A3013 RMK A01 T01550106  RH  072%=      5-min Rain = 0
KHA2 120819Z 24007KT 16/11 A3013 RMK A01 T01550106  RH  073%=      5-min Rain = 0
KHA2 120820Z 23007KT 15/11 A3013 RMK A01 T01540106  RH  073%=      5-min Rain = 0
KHA2 120821Z 23007KT 15/11 A3013 RMK A01 T01540105  RH  073%=      5-min Rain = 0
KHA2 120822Z 23007KT 15/11 A3013 RMK A01 T01540105  RH  072%=      5-min Rain = 0
KHA2 120823Z 24007KT 15/11 A3014 RMK A01 T01540105  RH  072%=      5-min Rain = 0
KHA2 120824Z 24007KT 15/11 A3014 RMK A01 T01540105  RH  073%=      5-min Rain = 0
KHA2 120825Z 24007KT 15/11 A3013 RMK A01 T01530105  RH  073%=      5-min Rain = 0
KHA2 120826Z 24007KT 15/11 A3013 RMK A01 T01530105  RH  073%=      5-min Rain = 0
KHA2 120827Z 24007KT 15/11 A3013 RMK A01 T01530106  RH  073%=      5-min Rain = 0
KHA2 120828Z 24007KT 15/11 A3013 RMK A01 T01530105  RH  073%=      5-min Rain = 0
KHA2 120829Z 23007KT 15/11 A3013 RMK A01 T01530105  RH  073%=      5-min Rain = 0
KHA2 120830Z 23007KT 15/11 A3013 RMK A01 T01530105  RH  073%=      5-min Rain = 0
KHA2 120831Z 23007KT 15/11 A3013 RMK A01 T01530105  RH  073%=      5-min Rain = 0
KHA2 120832Z 23007KT 15/11 A3013 RMK A01 T01530105  RH  073%=      5-min Rain = 0
KHA2 120833Z 23007KT 15/11 A3013 RMK A01 T01530105  RH  073%=      5-min Rain = 0
KHA2 120834Z 23007KT 15/11 A3013 RMK A01 T01530105  RH  073%=      5-min Rain = 0
KHA2 120835Z 23007KT 15/11 A3013 RMK A01 T01530106  RH  073%=      5-min Rain = 0
KHA2 120836Z 23007KT 15/11 A3013 RMK A01 T01530106  RH  073%=      5-min Rain = 0
KHA2 120837Z 23007KT 15/11 A3013 RMK A01 T01520105  RH  073%=      5-min Rain = 0
KHA2 120838Z 23007KT 15/11 A3013 RMK A01 T01520105  RH  073%=      5-min Rain = 0
KHA2 120839Z 23007KT 15/11 A3013 RMK A01 T01520105  RH  073%=      5-min Rain = 0
KHA2 120840Z 23007KT 15/11 A3013 RMK A01 T01520105  RH  073%=      5-min Rain = 0
KHA2 120841Z 23007KT 15/10 A3013 RMK A01 T01520104  RH  073%=      5-min Rain = 0
KHA2 120842Z 23007KT 15/10 A3013 RMK A01 T01510104  RH  073%=      5-min Rain = 0
KHA2 120843Z 23007KT 15/11 A3013 RMK A01 T01510105  RH  074%=      5-min Rain = 0
KHA2 120844Z 23007KT 15/10 A3013 RMK A01 T01510104  RH  074%=      5-min Rain = 0
KHA2 120845Z 23007KT 15/10 A3013 RMK A01 T01500104  RH  074%=      5-min Rain = 0
KHA2 120846Z 23007KT 15/10 A3013 RMK A01 T01500104  RH  074%=      5-min Rain = 0
KHA2 120847Z 23007KT 15/10 A3013 RMK A01 T01500104  RH  074%=      5-min Rain = 0
KHA2 120848Z 23007KT 15/10 A3013 RMK A01 T01500104  RH  074%=      5-min Rain = 0
KHA2 120849Z 23007KT 15/10 A3013 RMK A01 T01500104  RH  074%=      5-min Rain = 0
KHA2 120850Z 23007KT 15/10 A3013 RMK A01 T01500104  RH  074%=      5-min Rain = 0
KHA2 120851Z 23007KT 15/10 A3013 RMK A01 T01500104  RH  074%=      5-min Rain = 0
KHA2 120852Z 23007KT 15/10 A3013 RMK A01 T01500104  RH  074%=      5-min Rain = 0
KHA2 120853Z 24007KT 15/10 A3013 RMK A01 T01500104  RH  074%=      5-min Rain = 0
KHA2 120854Z 24008KT 15/10 A3013 RMK A01 T01500103  RH  073%=      5-min Rain = 0
KHA2 120855Z 24008KT 15/10 A3013 RMK A01 T01510103  RH  073%=      5-min Rain = 0
KHA2 120856Z 24007KT 15/10 A3012 RMK A01 T01530103  RH  072%=      5-min Rain = 0
KHA2 120857Z 24007KT 16/10 A3012 RMK A01 T01550104  RH  071%=      5-min Rain = 0
KHA2 120858Z 24008KT 16/10 A3012 RMK A01 T01560104  RH  071%=      5-min Rain = 0
KHA2 120859Z 24008KT 16/10 A3012 RMK A01 T01570103  RH  070%=      5-min Rain = 0
KHA2 120900Z 24007KT 16/10 A3012 RMK A01 T01570103  RH  070%=      5-min Rain = 0
KHA2 120901Z 24007KT 16/10 A3012 RMK A01 T01570103  RH  070%=      5-min Rain = 0
KHA2 120902Z 24007KT 16/10 A3012 RMK A01 T01580103  RH  070%=      5-min Rain = 0
KHA2 120903Z 24007KT 16/10 A3012 RMK A01 T01580103  RH  070%=      5-min Rain = 0
KHA2 120904Z 24008KT 16/10 A3012 RMK A01 T01570103  RH  070%=      5-min Rain = 0
KHA2 120905Z 24007KT 16/10 A3012 RMK A01 T01570103  RH  070%=      5-min Rain = 0
KHA2 120906Z 24007KT 16/10 A3012 RMK A01 T01570103  RH  070%=      5-min Rain = 0
KHA2 120907Z 24007KT 16/10 A3012 RMK A01 T01560102  RH  070%=      5-min Rain = 0
KHA2 120908Z 24007KT 16/10 A3012 RMK A01 T01550102  RH  071%=      5-min Rain = 0
KHA2 120909Z 24007KT 15/10 A3012 RMK A01 T01540102  RH  071%=      5-min Rain = 0
KHA2 120910Z 24008KT 15/10 A3012 RMK A01 T01540102  RH  071%=      5-min Rain = 0
KHA2 120911Z 24008KT 15/10 A3012 RMK A01 T01540102  RH  071%=      5-min Rain = 0
KHA2 120912Z 24008KT 15/10 A3012 RMK A01 T01540102  RH  071%=      5-min Rain = 0
KHA2 120913Z 25008KT 15/10 A3012 RMK A01 T01540102  RH  071%=      5-min Rain = 0
KHA2 120914Z 25008KT 16/10 A3012 RMK A01 T01550102  RH  071%=      5-min Rain = 0
KHA2 120915Z 25008KT 16/10 A3012 RMK A01 T01550102  RH  071%=      5-min Rain = 0
KHA2 120916Z 25008KT 16/10 A3012 RMK A01 T01550102  RH  071%=      5-min Rain = 0
KHA2 120917Z 25008KT 16/10 A3012 RMK A01 T01550102  RH  071%=      5-min Rain = 0
KHA2 120918Z 25008KT 16/10 A3012 RMK A01 T01550102  RH  071%=      5-min Rain = 0
KHA2 120919Z 25008KT 16/10 A3012 RMK A01 T01550102  RH  071%=      5-min Rain = 0
KHA2 120920Z 25008KT 15/10 A3012 RMK A01 T01540102  RH  071%=      5-min Rain = 0
KHA2 120921Z 25008KT 15/10 A3012 RMK A01 T01540102  RH  071%=      5-min Rain = 0
KHA2 120922Z 25008KT 15/10 A3012 RMK A01 T01540102  RH  071%=      5-min Rain = 0
KHA2 120923Z 25008KT 15/10 A3012 RMK A01 T01530102  RH  071%=      5-min Rain = 0
KHA2 120924Z 25008KT 15/10 A3012 RMK A01 T01530102  RH  071%=      5-min Rain = 0
KHA2 120925Z 25007KT 15/10 A3012 RMK A01 T01530101  RH  071%=      5-min Rain = 0
KHA2 120926Z 25008KT 15/10 A3012 RMK A01 T01530101  RH  071%=      5-min Rain = 0
KHA2 120927Z 25008KT 15/10 A3012 RMK A01 T01520101  RH  071%=      5-min Rain = 0
KHA2 120928Z 25008KT 15/10 A3012 RMK A01 T01520101  RH  071%=      5-min Rain = 0
KHA2 120929Z 25008KT 15/10 A3012 RMK A01 T01520100  RH  071%=      5-min Rain = 0
KHA2 120930Z 25008KT 15/10 A3012 RMK A01 T01510100  RH  072%=      5-min Rain = 0
KHA2 120931Z 26008KT 15/10 A3012 RMK A01 T01510100  RH  072%=      5-min Rain = 0
KHA2 120932Z 25008KT 15/10 A3012 RMK A01 T01510100  RH  072%=      5-min Rain = 0
KHA2 120933Z 25008KT 15/10 A3012 RMK A01 T01510100  RH  072%=      5-min Rain = 0
KHA2 120934Z 25008KT 15/10 A3012 RMK A01 T01510100  RH  072%=      5-min Rain = 0
KHA2 120935Z 26008KT 15/10 A3012 RMK A01 T01510100  RH  072%=      5-min Rain = 0
KHA2 120936Z 25008KT 15/10 A3012 RMK A01 T01510100  RH  072%=      5-min Rain = 0
KHA2 120937Z 26007KT 15/10 A3012 RMK A01 T01510100  RH  072%=      5-min Rain = 0
KHA2 120938Z 25007KT 15/10 A3012 RMK A01 T01500100  RH  072%=      5-min Rain = 0
KHA2 120939Z 25007KT 15/10 A3012 RMK A01 T01500100  RH  072%=      5-min Rain = 0
KHA2 120940Z 25007KT 15/10 A3012 RMK A01 T01500100  RH  072%=      5-min Rain = 0
KHA2 120941Z 25007KT 15/10 A3012 RMK A01 T01490100  RH  072%=      5-min Rain = 0
KHA2 120942Z 25007KT 15/10 A3012 RMK A01 T01490100  RH  072%=      5-min Rain = 0
KHA2 120943Z 25007KT 15/10 A3012 RMK A01 T01490100  RH  072%=      5-min Rain = 0
KHA2 120944Z 25007KT 15/10 A3012 RMK A01 T01490100  RH  072%=      5-min Rain = 0
KHA2 120945Z 25007KT 15/10 A3012 RMK A01 T01480100  RH  073%=      5-min Rain = 0
KHA2 120946Z 25007KT 15/10 A3012 RMK A01 T01480100  RH  073%=      5-min Rain = 0
KHA2 120947Z 25007KT 15/10 A3012 RMK A01 T01480099  RH  073%=      5-min Rain = 0
KHA2 120948Z 25007KT 15/10 A3012 RMK A01 T01470099  RH  073%=      5-min Rain = 0
KHA2 120949Z 25007KT 15/10 A3012 RMK A01 T01470099  RH  073%=      5-min Rain = 0
KHA2 120950Z 25007KT 15/10 A3012 RMK A01 T01470100  RH  073%=      5-min Rain = 0
KHA2 120951Z 25007KT 15/10 A3012 RMK A01 T01460099  RH  073%=      5-min Rain = 0
KHA2 120952Z 25007KT 15/10 A3011 RMK A01 T01460099  RH  074%=      5-min Rain = 0
KHA2 120953Z 25007KT 15/10 A3011 RMK A01 T01460100  RH  074%=      5-min Rain = 0
KHA2 120954Z 25007KT 15/10 A3011 RMK A01 T01460099  RH  074%=      5-min Rain = 0
KHA2 120955Z 25007KT 15/10 A3011 RMK A01 T01460099  RH  074%=      5-min Rain = 0
KHA2 120956Z 25007KT 15/10 A3011 RMK A01 T01460100  RH  074%=      5-min Rain = 0
KHA2 120957Z 25007KT 15/10 A3011 RMK A01 T01460100  RH  074%=      5-min Rain = 0
KHA2 120958Z 25007KT 15/10 A3011 RMK A01 T01460100  RH  074%=      5-min Rain = 0
KHA2 120959Z 25007KT 15/10 A3011 RMK A01 T01460100  RH  073%=      5-min Rain = 0
KHA2 121000Z 25007KT 15/10 A3011 RMK A01 T01460100  RH  073%=      5-min Rain = 0
KHA2 121001Z 25007KT 15/10 A3011 RMK A01 T01470100  RH  073%=      5-min Rain = 0
KHA2 121002Z 25006KT 15/10 A3011 RMK A01 T01470100  RH  074%=      5-min Rain = 0
KHA2 121003Z 25006KT 15/10 A3011 RMK A01 T01470100  RH  073%=      5-min Rain = 0
KHA2 121004Z 25005KT 15/10 A3011 RMK A01 T01470100  RH  073%=      5-min Rain = 0
KHA2 121005Z 25005KT 15/10 A3011 RMK A01 T01470100  RH  073%=      5-min Rain = 0
KHA2 121006Z 24005KT 15/10 A3011 RMK A01 T01470100  RH  073%=      5-min Rain = 0
KHA2 121007Z 25004KT 14/10 A3011 RMK A01 T01430097  RH  074%=      5-min Rain = 0
KHA2 121008Z 25004KT 14/09 A3011 RMK A01 T01380094  RH  075%=      5-min Rain = 0
KHA2 121009Z 24004KT 13/09 A3011 RMK A01 T01340094  RH  077%=      5-min Rain = 0
KHA2 121010Z 25004KT 13/10 A3011 RMK A01 T01320096  RH  079%=      5-min Rain = 0
KHA2 121011Z 24004KT 13/10 A3011 RMK A01 T01300097  RH  080%=      5-min Rain = 0
KHA2 121012Z 24004KT 13/10 A3011 RMK A01 T01300098  RH  081%=      5-min Rain = 0
KHA2 121013Z 24004KT 13/10 A3011 RMK A01 T01300098  RH  081%=      5-min Rain = 0
KHA2 121014Z 24004KT 13/10 A3011 RMK A01 T01300099  RH  081%=      5-min Rain = 0
KHA2 121015Z 24004KT 13/10 A3011 RMK A01 T01310100  RH  081%=      5-min Rain = 0
KHA2 121016Z 24005KT 13/10 A3011 RMK A01 T01320099  RH  081%=      5-min Rain = 0
KHA2 121017Z 24005KT 13/10 A3011 RMK A01 T01320099  RH  080%=      5-min Rain = 0
KHA2 121018Z 24005KT 13/10 A3011 RMK A01 T01320098  RH  080%=      5-min Rain = 0
KHA2 121019Z 24005KT 13/10 A3011 RMK A01 T01320098  RH  080%=      5-min Rain = 0
KHA2 121020Z 25005KT 13/10 A3011 RMK A01 T01320099  RH  080%=      5-min Rain = 0
KHA2 121021Z 25005KT 13/10 A3011 RMK A01 T01330100  RH  080%=      5-min Rain = 0
KHA2 121022Z 25005KT 13/10 A3011 RMK A01 T01340101  RH  080%=      5-min Rain = 0
KHA2 121023Z 25005KT 14/10 A3011 RMK A01 T01350101  RH  080%=      5-min Rain = 0
KHA2 121024Z 25005KT 14/10 A3011 RMK A01 T01360100  RH  079%=      5-min Rain = 0
KHA2 121025Z 25006KT 14/10 A3011 RMK A01 T01360099  RH  078%=      5-min Rain = 0
KHA2 121026Z 25006KT 14/10 A3011 RMK A01 T01370100  RH  078%=      5-min Rain = 0
KHA2 121027Z 25006KT 14/10 A3011 RMK A01 T01380100  RH  078%=      5-min Rain = 0
KHA2 121028Z 25005KT 14/10 A3011 RMK A01 T01400100  RH  077%=      5-min Rain = 0
KHA2 121029Z 25006KT 14/10 A3011 RMK A01 T01410101  RH  077%=      5-min Rain = 0
KHA2 121030Z 25006KT 14/10 A3011 RMK A01 T01420100  RH  076%=      5-min Rain = 0
KHA2 121031Z 25006KT 14/10 A3011 RMK A01 T01430101  RH  076%=      5-min Rain = 0
KHA2 121032Z 24005KT 14/10 A3011 RMK A01 T01440101  RH  075%=      5-min Rain = 0
KHA2 121033Z 24005KT 14/10 A3011 RMK A01 T01440100  RH  075%=      5-min Rain = 0
KHA2 121034Z 24005KT 14/10 A3011 RMK A01 T01430099  RH  075%=      5-min Rain = 0
KHA2 121035Z 24005KT 14/10 A3011 RMK A01 T01410098  RH  075%=      5-min Rain = 0
KHA2 121036Z 24005KT 14/10 A3011 RMK A01 T01370097  RH  077%=      5-min Rain = 0
KHA2 121037Z 24004KT 14/10 A3011 RMK A01 T01350098  RH  078%=      5-min Rain = 0
KHA2 121038Z 24004KT 13/10 A3011 RMK A01 T01330098  RH  079%=      5-min Rain = 0
KHA2 121039Z 24004KT 13/10 A3011 RMK A01 T01310098  RH  080%=      5-min Rain = 0
KHA2 121040Z 24004KT 13/10 A3011 RMK A01 T01300097  RH  081%=      5-min Rain = 0
KHA2 121041Z 24004KT 13/10 A3011 RMK A01 T01290098  RH  081%=      5-min Rain = 0
KHA2 121042Z 24004KT 13/10 A3011 RMK A01 T01290098  RH  082%=      5-min Rain = 0
KHA2 121043Z 24004KT 13/10 A3011 RMK A01 T01290098  RH  082%=      5-min Rain = 0
KHA2 121044Z 24004KT 13/10 A3011 RMK A01 T01290098  RH  082%=      5-min Rain = 0
KHA2 121045Z 24004KT 13/10 A3011 RMK A01 T01280097  RH  082%=      5-min Rain = 0
KHA2 121046Z 24005KT 13/10 A3011 RMK A01 T01270097  RH  082%=      5-min Rain = 0
KHA2 121047Z 24005KT 13/10 A3011 RMK A01 T01270098  RH  083%=      5-min Rain = 0
KHA2 121048Z 24005KT 13/10 A3011 RMK A01 T01270098  RH  082%=      5-min Rain = 0
KHA2 121049Z 24005KT 13/10 A3011 RMK A01 T01270098  RH  082%=      5-min Rain = 0
KHA2 121050Z 24005KT 13/10 A3011 RMK A01 T01270098  RH  082%=      5-min Rain = 0
KHA2 121051Z 24005KT 13/10 A3011 RMK A01 T01270099  RH  083%=      5-min Rain = 0
KHA2 121052Z 24006KT 13/10 A3011 RMK A01 T01280099  RH  083%=      5-min Rain = 0
KHA2 121053Z 24006KT 13/10 A3011 RMK A01 T01290099  RH  082%=      5-min Rain = 0
KHA2 121054Z 24006KT 13/10 A3011 RMK A01 T01290098  RH  082%=      5-min Rain = 0
KHA2 121055Z 24006KT 13/10 A3011 RMK A01 T01300098  RH  081%=      5-min Rain = 0
KHA2 121056Z 24006KT 13/10 A3011 RMK A01 T01310098  RH  080%=      5-min Rain = 0
KHA2 121057Z 23006KT 13/10 A3011 RMK A01 T01320098  RH  080%=      5-min Rain = 0
KHA2 121058Z 23006KT 13/10 A3011 RMK A01 T01330099  RH  080%=      5-min Rain = 0
KHA2 121059Z 23005KT 13/10 A3011 RMK A01 T01340099  RH  079%=      5-min Rain = 0
KHA2 121100Z 23005KT 13/10 A3011 RMK A01 T01340099  RH  079%=      5-min Rain = 0
KHA2 121101Z 24005KT 13/10 A3011 RMK A01 T01330098  RH  079%=      5-min Rain = 0
KHA2 121102Z 24005KT 13/10 A3011 RMK A01 T01310096  RH  079%=      5-min Rain = 0
KHA2 121103Z 24005KT 13/10 A3011 RMK A01 T01290095  RH  080%=      5-min Rain = 0
KHA2 121104Z 24005KT 13/10 A3011 RMK A01 T01250095  RH  082%=      5-min Rain = 0
KHA2 121105Z 24005KT 12/10 A3011 RMK A01 T01240096  RH  083%=      5-min Rain = 0
KHA2 121106Z 24005KT 12/10 A3011 RMK A01 T01230097  RH  084%=      5-min Rain = 0
KHA2 121107Z 24005KT 12/10 A3011 RMK A01 T01230097  RH  084%=      5-min Rain = 0
KHA2 121108Z 24005KT 12/10 A3011 RMK A01 T01220097  RH  085%=      5-min Rain = 0
KHA2 121109Z 24005KT 12/10 A3011 RMK A01 T01220097  RH  085%=      5-min Rain = 0
KHA2 121110Z 24005KT 12/10 A3011 RMK A01 T01220097  RH  085%=      5-min Rain = 0
KHA2 121111Z 25005KT 12/10 A3011 RMK A01 T01220097  RH  085%=      5-min Rain = 0
KHA2 121112Z 25005KT 12/10 A3011 RMK A01 T01210096  RH  084%=      5-min Rain = 0
KHA2 121113Z 24005KT 12/10 A3011 RMK A01 T01210096  RH  084%=      5-min Rain = 0
KHA2 121114Z 24005KT 12/10 A3011 RMK A01 T01220097  RH  085%=      5-min Rain = 0
KHA2 121115Z 25005KT 12/10 A3011 RMK A01 T01240097  RH  084%=      5-min Rain = 0
KHA2 121116Z 25005KT 13/10 A3011 RMK A01 T01250097  RH  083%=      5-min Rain = 0
KHA2 121117Z 25006KT 13/10 A3011 RMK A01 T01260096  RH  082%=      5-min Rain = 0
KHA2 121118Z 25006KT 13/10 A3011 RMK A01 T01280099  RH  082%=      5-min Rain = 0
KHA2 121119Z 25006KT 13/10 A3011 RMK A01 T01310099  RH  081%=      5-min Rain = 0
KHA2 121120Z 25006KT 13/10 A3011 RMK A01 T01340100  RH  080%=      5-min Rain = 0
KHA2 121121Z 26006KT 14/10 A3011 RMK A01 T01370100  RH  078%=      5-min Rain = 0
KHA2 121122Z 26006KT 14/10 A3011 RMK A01 T01390100  RH  077%=      5-min Rain = 0
KHA2 121123Z 26006KT 14/10 A3011 RMK A01 T01410099  RH  076%=      5-min Rain = 0
KHA2 121124Z 26006KT 14/10 A3011 RMK A01 T01420099  RH  076%=      5-min Rain = 0
KHA2 121125Z 26006KT 14/10 A3011 RMK A01 T01430100  RH  075%=      5-min Rain = 0
KHA2 121126Z 26006KT 14/10 A3011 RMK A01 T01440099  RH  075%=      5-min Rain = 0
KHA2 121127Z 26006KT 14/10 A3011 RMK A01 T01440099  RH  074%=      5-min Rain = 0
KHA2 121128Z 26006KT 15/10 A3011 RMK A01 T01450099  RH  074%=      5-min Rain = 0
KHA2 121129Z 26006KT 15/10 A3011 RMK A01 T01450100  RH  074%=      5-min Rain = 0
KHA2 121130Z 26006KT 15/10 A3011 RMK A01 T01460100  RH  074%=      5-min Rain = 0
KHA2 121131Z 26007KT 15/10 A3011 RMK A01 T01460100  RH  074%=      5-min Rain = 0
KHA2 121132Z 26007KT 15/10 A3011 RMK A01 T01470100  RH  073%=      5-min Rain = 0
KHA2 121133Z 26007KT 15/10 A3011 RMK A01 T01470100  RH  073%=      5-min Rain = 0
KHA2 121134Z 26006KT 15/10 A3011 RMK A01 T01480100  RH  073%=      5-min Rain = 0
KHA2 121135Z 26006KT 15/10 A3011 RMK A01 T01470100  RH  073%=      5-min Rain = 0
KHA2 121136Z 26006KT 15/10 A3011 RMK A01 T01470100  RH  073%=      5-min Rain = 0
KHA2 121137Z 26005KT 15/10 A3011 RMK A01 T01470100  RH  073%=      5-min Rain = 0
KHA2 121138Z 25005KT 15/10 A3011 RMK A01 T01460100  RH  073%=      5-min Rain = 0
KHA2 121139Z 25005KT 15/10 A3011 RMK A01 T01460100  RH  074%=      5-min Rain = 0
KHA2 121140Z 25005KT 15/10 A3011 RMK A01 T01450099  RH  074%=      5-min Rain = 0
KHA2 121141Z 25005KT 15/10 A3011 RMK A01 T01450100  RH  074%=      5-min Rain = 0
KHA2 121142Z 25005KT 14/10 A3011 RMK A01 T01440099  RH  074%=      5-min Rain = 0
KHA2 121143Z 25005KT 14/10 A3011 RMK A01 T01440099  RH  075%=      5-min Rain = 0
KHA2 121144Z 25005KT 14/10 A3011 RMK A01 T01430099  RH  075%=      5-min Rain = 0
KHA2 121145Z 25006KT 14/10 A3011 RMK A01 T01430099  RH  075%=      5-min Rain = 0
KHA2 121146Z 25005KT 14/10 A3011 RMK A01 T01420099  RH  075%=      5-min Rain = 0
KHA2 121147Z 25005KT 14/10 A3011 RMK A01 T01410098  RH  075%=      5-min Rain = 0
KHA2 121148Z 25005KT 14/10 A3011 RMK A01 T01410098  RH  075%=      5-min Rain = 0
KHA2 121149Z 24005KT 14/10 A3011 RMK A01 T01410098  RH  075%=      5-min Rain = 0
KHA2 121150Z 24005KT 14/10 A3011 RMK A01 T01390098  RH  076%=      5-min Rain = 0
KHA2 121151Z 24005KT 14/10 A3011 RMK A01 T01370096  RH  076%=      5-min Rain = 0
KHA2 121152Z 24005KT 13/09 A3011 RMK A01 T01320092  RH  077%=      5-min Rain = 0
KHA2 121153Z 24004KT 13/09 A3011 RMK A01 T01280092  RH  079%=      5-min Rain = 0
KHA2 121154Z 24004KT 13/09 A3011 RMK A01 T01250093  RH  081%=      5-min Rain = 0
KHA2 121155Z 24004KT 12/09 A3011 RMK A01 T01230094  RH  082%=      5-min Rain = 0
KHA2 121156Z 24004KT 12/10 A3011 RMK A01 T01230096  RH  083%=      5-min Rain = 0
KHA2 121157Z 23005KT 12/10 A3011 RMK A01 T01230097  RH  084%=      5-min Rain = 0
KHA2 121158Z 24004KT 12/10 A3011 RMK A01 T01230097  RH  084%=      5-min Rain = 0
KHA2 121159Z 24004KT 12/10 A3011 RMK A01 T01230097  RH  084%=      5-min Rain = 0
KHA2 121200Z 24004KT 12/10 A3011 RMK A01 T01240097  RH  084%=      5-min Rain = 0
KHA2 121201Z 23004KT 12/10 A3011 RMK A01 T01240097  RH  083%=      5-min Rain = 0
KHA2 121202Z 23003KT 12/10 A3011 RMK A01 T01240096  RH  083%=      5-min Rain = 0
KHA2 121203Z 23003KT 12/09 A3011 RMK A01 T01220094  RH  083%=      5-min Rain = 0
KHA2 121204Z 22003KT 12/10 A3011 RMK A01 T01210095  RH  084%=      5-min Rain = 0
KHA2 121205Z 22003KT 12/10 A3011 RMK A01 T01210096  RH  085%=      5-min Rain = 0
KHA2 121206Z 22003KT 12/10 A3011 RMK A01 T01210096  RH  084%=      5-min Rain = 0
KHA2 121207Z 22003KT 12/10 A3011 RMK A01 T01210096  RH  084%=      5-min Rain = 0
KHA2 121208Z 22004KT 12/10 A3011 RMK A01 T01220096  RH  084%=      5-min Rain = 0
KHA2 121209Z 22004KT 12/10 A3011 RMK A01 T01220096  RH  084%=      5-min Rain = 0
KHA2 121210Z 21003KT 12/10 A3011 RMK A01 T01220096  RH  084%=      5-min Rain = 0
KHA2 121211Z 21004KT 12/09 A3011 RMK A01 T01200094  RH  084%=      5-min Rain = 0
KHA2 121212Z 21004KT 12/09 A3011 RMK A01 T01190092  RH  084%=      5-min Rain = 0
KHA2 121213Z 21004KT 12/09 A3011 RMK A01 T01170093  RH  085%=      5-min Rain = 0
KHA2 121214Z 22004KT 12/09 A3011 RMK A01 T01170093  RH  085%=      5-min Rain = 0
KHA2 121215Z 22004KT 12/09 A3011 RMK A01 T01160092  RH  085%=      5-min Rain = 0
KHA2 121216Z 22003KT 12/09 A3011 RMK A01 T01160091  RH  085%=      5-min Rain = 0
KHA2 121217Z 22003KT 12/09 A3011 RMK A01 T01150091  RH  085%=      5-min Rain = 0
KHA2 121218Z 22003KT 12/09 A3011 RMK A01 T01150092  RH  086%=      5-min Rain = 0
KHA2 121219Z 22004KT 12/09 A3011 RMK A01 T01150092  RH  086%=      5-min Rain = 0
KHA2 121220Z 23004KT 12/09 A3011 RMK A01 T01160092  RH  086%=      5-min Rain = 0
KHA2 121221Z 23003KT 12/09 A3011 RMK A01 T01160093  RH  086%=      5-min Rain = 0
KHA2 121222Z 23003KT 12/10 A3011 RMK A01 T01170095  RH  086%=      5-min Rain = 0
KHA2 121223Z 22004KT 12/10 A3011 RMK A01 T01190097  RH  086%=      5-min Rain = 0
KHA2 121224Z 22004KT 12/10 A3011 RMK A01 T01210098  RH  086%=      5-min Rain = 0
KHA2 121225Z 22003KT 12/10 A3011 RMK A01 T01220098  RH  085%=      5-min Rain = 0
KHA2 121226Z 21003KT 12/10 A3011 RMK A01 T01230097  RH  085%=      5-min Rain = 0
KHA2 121227Z 21003KT 12/10 A3011 RMK A01 T01240097  RH  084%=      5-min Rain = 0
KHA2 121228Z 21003KT 12/10 A3011 RMK A01 T01240096  RH  083%=      5-min Rain = 0
KHA2 121229Z 22003KT 12/10 A3011 RMK A01 T01220095  RH  083%=      5-min Rain = 0
KHA2 121230Z 22003KT 12/10 A3011 RMK A01 T01210096  RH  084%=      5-min Rain = 0
KHA2 121231Z 22003KT 12/10 A3011 RMK A01 T01210096  RH  085%=      5-min Rain = 0
KHA2 121232Z 22003KT 12/10 A3011 RMK A01 T01220097  RH  085%=      5-min Rain = 0
KHA2 121233Z 22003KT 12/10 A3011 RMK A01 T01230097  RH  084%=      5-min Rain = 0
KHA2 121234Z 22003KT 12/10 A3011 RMK A01 T01230097  RH  084%=      5-min Rain = 0
KHA2 121235Z 22003KT 12/10 A3011 RMK A01 T01240097  RH  084%=      5-min Rain = 0
KHA2 121236Z 22003KT 12/10 A3011 RMK A01 T01240097  RH  084%=      5-min Rain = 0
KHA2 121237Z 22003KT 13/10 A3011 RMK A01 T01250097  RH  083%=      5-min Rain = 0
KHA2 121238Z 22003KT 12/10 A3011 RMK A01 T01240096  RH  083%=      5-min Rain = 0
KHA2 121239Z 22003KT 13/10 A3011 RMK A01 T01250096  RH  083%=      5-min Rain = 0
KHA2 121240Z 22003KT 13/10 A3011 RMK A01 T01250096  RH  083%=      5-min Rain = 0
KHA2 121241Z 22003KT 13/10 A3011 RMK A01 T01250097  RH  083%=      5-min Rain = 0
KHA2 121242Z 22003KT 13/10 A3011 RMK A01 T01250097  RH  083%=      5-min Rain = 0
KHA2 121243Z 22003KT 13/10 A3011 RMK A01 T01260097  RH  083%=      5-min Rain = 0
KHA2 121244Z 23003KT 13/10 A3011 RMK A01 T01260097  RH  083%=      5-min Rain = 0
KHA2 121245Z 23003KT 13/10 A3011 RMK A01 T01260097  RH  082%=      5-min Rain = 0
KHA2 121246Z 24003KT 13/10 A3011 RMK A01 T01270097  RH  082%=      5-min Rain = 0
KHA2 121247Z 24003KT 13/10 A3011 RMK A01 T01270096  RH  082%=      5-min Rain = 0
KHA2 121248Z 24003KT 13/10 A3011 RMK A01 T01270096  RH  081%=      5-min Rain = 0
KHA2 121249Z 23003KT 13/10 A3011 RMK A01 T01270096  RH  082%=      5-min Rain = 0
KHA2 121250Z 23003KT 13/10 A3011 RMK A01 T01270097  RH  082%=      5-min Rain = 0
KHA2 121251Z 23003KT 13/10 A3011 RMK A01 T01270097  RH  082%=      5-min Rain = 0
KHA2 121252Z 22003KT 13/10 A3011 RMK A01 T01280098  RH  082%=      5-min Rain = 0
KHA2 121253Z 22004KT 13/10 A3011 RMK A01 T01280098  RH  082%=      5-min Rain = 0
KHA2 121254Z 22004KT 13/10 A3011 RMK A01 T01280098  RH  082%=      5-min Rain = 0
KHA2 121255Z 22004KT 13/10 A3011 RMK A01 T01270097  RH  082%=      5-min Rain = 0
KHA2 121256Z 22004KT 13/10 A3011 RMK A01 T01270097  RH  082%=      5-min Rain = 0
KHA2 121257Z 22004KT 13/10 A3011 RMK A01 T01270097  RH  082%=      5-min Rain = 0
KHA2 121258Z 22004KT 13/10 A3011 RMK A01 T01260096  RH  082%=      5-min Rain = 0
KHA2 121259Z 22004KT 13/10 A3011 RMK A01 T01260097  RH  082%=      5-min Rain = 0
KHA2 121300Z 22005KT 13/10 A3011 RMK A01 T01260097  RH  083%=      5-min Rain = 0
KHA2 121301Z 22005KT 13/10 A3011 RMK A01 T01260097  RH  083%=      5-min Rain = 0
KHA2 121302Z 22005KT 13/10 A3011 RMK A01 T01260098  RH  083%=      5-min Rain = 0
KHA2 121303Z 22005KT 13/10 A3011 RMK A01 T01260098  RH  083%=      5-min Rain = 0
KHA2 121304Z 22005KT 13/10 A3011 RMK A01 T01270099  RH  083%=      5-min Rain = 0
KHA2 121305Z 22005KT 13/10 A3011 RMK A01 T01280100  RH  083%=      5-min Rain = 0
KHA2 121306Z 22005KT 13/10 A3011 RMK A01 T01290101  RH  083%=      5-min Rain = 0
KHA2 121307Z 22005KT 13/10 A3011 RMK A01 T01310101  RH  082%=      5-min Rain = 0
KHA2 121308Z 22006KT 13/10 A3011 RMK A01 T01320102  RH  082%=      5-min Rain = 0
KHA2 121309Z 22006KT 13/10 A3011 RMK A01 T01330102  RH  081%=      5-min Rain = 0
KHA2 121310Z 22006KT 13/10 A3011 RMK A01 T01340102  RH  081%=      5-min Rain = 0
KHA2 121311Z 22005KT 14/10 A3011 RMK A01 T01350103  RH  081%=      5-min Rain = 0
KHA2 121312Z 22005KT 14/10 A3011 RMK A01 T01360104  RH  081%=      5-min Rain = 0
KHA2 121313Z 23005KT 14/10 A3011 RMK A01 T01370104  RH  080%=      5-min Rain = 0
KHA2 121314Z 23005KT 14/10 A3011 RMK A01 T01380104  RH  080%=      5-min Rain = 0
KHA2 121315Z 23006KT 14/10 A3011 RMK A01 T01390104  RH  079%=      5-min Rain = 0
KHA2 121316Z 23006KT 14/10 A3011 RMK A01 T01400104  RH  079%=      5-min Rain = 0
KHA2 121317Z 23005KT 14/10 A3011 RMK A01 T01410104  RH  078%=      5-min Rain = 0
KHA2 121318Z 23005KT 14/10 A3011 RMK A01 T01430104  RH  078%=      5-min Rain = 0
KHA2 121319Z 23005KT 14/10 A3011 RMK A01 T01430104  RH  077%=      5-min Rain = 0
KHA2 121320Z 23005KT 14/10 A3011 RMK A01 T01440104  RH  077%=      5-min Rain = 0
KHA2 121321Z 23005KT 15/10 A301 RMK A01 T01450103  RH  076%=      5-min Rain = 0
KHA2 121322Z 23005KT 15/10 A3011 RMK A01 T01450103  RH  076%=      5-min Rain = 0
KHA2 121323Z 23006KT 15/10 A3011 RMK A01 T01450103  RH  076%=      5-min Rain = 0
KHA2 121324Z 23006KT 15/10 A3011 RMK A01 T01460104  RH  076%=      5-min Rain = 0
KHA2 121325Z 23005KT 15/10 A3011 RMK A01 T01470104  RH  075%=      5-min Rain = 0
KHA2 121326Z 23005KT 15/10 A3011 RMK A01 T01480104  RH  075%=      5-min Rain = 0
KHA2 121327Z 23005KT 15/11 A3011 RMK A01 T01490105  RH  075%=      5-min Rain = 0
KHA2 121328Z 23005KT 15/11 A3011 RMK A01 T01500105  RH  075%=      5-min Rain = 0
KHA2 121329Z 23004KT 15/11 A3011 RMK A01 T01500105  RH  075%=      5-min Rain = 0
KHA2 121330Z 23005KT 15/11 A3011 RMK A01 T01500106  RH  075%=      5-min Rain = 0
KHA2 121331Z 22004KT 15/11 A3011 RMK A01 T01510106  RH  075%=      5-min Rain = 0
KHA2 121332Z 22004KT 15/11 A3011 RMK A01 T01520107  RH  075%=      5-min Rain = 0
KHA2 121333Z 21003KT 15/11 A3011 RMK A01 T01520108  RH  075%=      5-min Rain = 0
KHA2 121334Z 21003KT 15/11 A3011 RMK A01 T01530109  RH  075%=      5-min Rain = 0
KHA2 121335Z 20003KT 15/11 A3011 RMK A01 T01530111  RH  076%=      5-min Rain = 0
KHA2 121336Z 19003KT 15/11 A3011 RMK A01 T01540111  RH  075%=      5-min Rain = 0
KHA2 121337Z 19002KT 15/11 A3011 RMK A01 T01540112  RH  076%=      5-min Rain = 0
KHA2 121338Z 19002KT 16/11 A3011 RMK A01 T01550114  RH  076%=      5-min Rain = 0
KHA2 121339Z 19003KT 16/12 A3011 RMK A01 T01560115  RH  077%=      5-min Rain = 0
KHA2 121340Z 19002KT 16/12 A3011 RMK A01 T01570116  RH  076%=      5-min Rain = 0
KHA2 121341Z 19003KT 16/12 A3011 RMK A01 T01580115  RH  075%=      5-min Rain = 0
KHA2 121342Z 20003KT 16/12 A3011 RMK A01 T01590115  RH  075%=      5-min Rain = 0
KHA2 121343Z 21003KT 16/12 A3011 RMK A01 T01610116  RH  075%=      5-min Rain = 0
KHA2 121344Z 21003KT 16/12 A3011 RMK A01 T01630116  RH  074%=      5-min Rain = 0
KHA2 121345Z 21003KT 16/12 A3011 RMK A01 T01640117  RH  073%=      5-min Rain = 0
KHA2 121346Z 21003KT 17/12 A301 RMK A01 T01660117  RH  073%=      5-min Rain = 0
KHA2 121347Z 22003KT 17/12 A301 RMK A01 T01670117  RH  072%=      5-min Rain = 0
KHA2 121348Z 22004KT 17/12 A301 RMK A01 T01680117  RH  072%=      5-min Rain = 0
KHA2 121349Z 22005KT 17/12 A301 RMK A01 T01700116  RH  070%=      5-min Rain = 0
KHA2 121350Z 22005KT 17/12 A301 RMK A01 T01710115  RH  069%=      5-min Rain = 0
KHA2 121351Z 22004KT 17/12 A301 RMK A01 T01720117  RH  070%=      5-min Rain = 0
KHA2 121352Z 22004KT 17/12 A301 RMK A01 T01730118  RH  070%=      5-min Rain = 0
KHA2 121353Z 22005KT 18/12 A301 RMK A01 T01750117  RH  069%=      5-min Rain = 0
KHA2 121354Z 22005KT 18/12 A301 RMK A01 T01750116  RH  068%=      5-min Rain = 0
KHA2 121355Z 22005KT 18/12 A301 RMK A01 T01750117  RH  069%=      5-min Rain = 0
KHA2 121356Z 22005KT 18/12 A301 RMK A01 T01760117  RH  069%=      5-min Rain = 0
KHA2 121357Z 21005KT 18/12 A301 RMK A01 T01770119  RH  069%=      5-min Rain = 0
KHA2 121358Z 21005KT 18/12 A301 RMK A01 T01780118  RH  068%=      5-min Rain = 0
KHA2 121359Z 21005KT 18/12 A301 RMK A01 T01790118  RH  068%=      5-min Rain = 0
KHA2 121400Z 21005KT 18/12 A301 RMK A01 T01800118  RH  067%=      5-min Rain = 0
KHA2 121401Z 21005KT 18/12 A301 RMK A01 T01810117  RH  066%=      5-min Rain = 0
KHA2 121402Z 22004KT 18/12 A301 RMK A01 T01820117  RH  066%=      5-min Rain = 0
KHA2 121403Z 22004KT 18/12 A301 RMK A01 T01820117  RH  066%=      5-min Rain = 0
KHA2 121404Z 22003KT 18/12 A301 RMK A01 T01830117  RH  066%=      5-min Rain = 0
KHA2 121405Z 21003KT 18/12 A301 RMK A01 T01840119  RH  066%=      5-min Rain = 0
KHA2 121406Z 21004KT 19/12 A301 RMK A01 T01860120  RH  066%=      5-min Rain = 0
KHA2 121407Z 22005KT 19/12 A301 RMK A01 T01870118  RH  064%=      5-min Rain = 0
KHA2 121408Z 22004KT 19/12 A301 RMK A01 T01870118  RH  064%=      5-min Rain = 0
KHA2 121409Z 22004KT 19/12 A301 RMK A01 T01880119  RH  064%=      5-min Rain = 0
KHA2 121410Z 21004KT 19/12 A301 RMK A01 T01880120  RH  064%=      5-min Rain = 0
KHA2 121411Z 21003KT 19/12 A301 RMK A01 T01900121  RH  064%=      5-min Rain = 0
KHA2 121412Z 21003KT 19/12 A301 RMK A01 T01910122  RH  064%=      5-min Rain = 0
KHA2 121413Z 22003KT 19/12 A301 RMK A01 T01930124  RH  064%=      5-min Rain = 0
KHA2 121414Z 22004KT 20/12 A301 RMK A01 T01950120  RH  062%=      5-min Rain = 0
KHA2 121415Z 22004KT 20/12 A301 RMK A01 T01950121  RH  062%=      5-min Rain = 0
KHA2 121416Z 21004KT 20/12 A301 RMK A01 T01950121  RH  062%=      5-min Rain = 0
KHA2 121417Z 20004KT 20/12 A301 RMK A01 T01970123  RH  062%=      5-min Rain = 0
KHA2 121418Z 21005KT 20/12 A301 RMK A01 T01980121  RH  061%=      5-min Rain = 0
KHA2 121419Z 20005KT 20/12 A301 RMK A01 T01990120  RH  060%=      5-min Rain = 0
KHA2 121420Z 20005KT 20/12 A301 RMK A01 T02000120  RH  060%=      5-min Rain = 0
KHA2 121421Z 20005KT 20/12 A301 RMK A01 T02010119  RH  059%=      5-min Rain = 0
KHA2 121422Z 21005KT 20/12 A301 RMK A01 T02010118  RH  059%=      5-min Rain = 0
KHA2 121423Z 21004KT 20/12 A301 RMK A01 T02020119  RH  059%=      5-min Rain = 0
KHA2 121424Z 20005KT 20/12 A301 RMK A01 T02030121  RH  059%=      5-min Rain = 0
KHA2 121425Z 21005KT 20/12 A301 RMK A01 T02040119  RH  058%=      5-min Rain = 0
KHA2 121426Z 21005KT 21/12 A301 RMK A01 T02050118  RH  057%=      5-min Rain = 0
KHA2 121427Z 22004KT 21/12 A301 RMK A01 T02060120  RH  058%=      5-min Rain = 0
KHA2 121428Z 20005KT 21/12 A301 RMK A01 T02070122  RH  058%=      5-min Rain = 0
KHA2 121429Z 20005KT 21/12 A301 RMK A01 T02080119  RH  057%=      5-min Rain = 0
KHA2 121430Z 19006KT 21/12 A301 RMK A01 T02080118  RH  056%=      5-min Rain = 0
KHA2 121431Z 20005KT 21/12 A301 RMK A01 T02080117  RH  056%=      5-min Rain = 0
KHA2 121432Z 20005KT 21/12 A301 RMK A01 T02080119  RH  056%=      5-min Rain = 0
KHA2 121433Z 21005KT 21/12 A301 RMK A01 T02090120  RH  057%=      5-min Rain = 0
KHA2 121434Z 21004KT 21/12 A3011 RMK A01 T02090120  RH  056%=      5-min Rain = 0
KHA2 121435Z 20005KT 21/12 A3011 RMK A01 T02100120  RH  056%=      5-min Rain = 0
KHA2 121436Z 21005KT 21/12 A3011 RMK A01 T02110119  RH  055%=      5-min Rain = 0
KHA2 121437Z 20005KT 21/12 A3011 RMK A01 T02120118  RH  055%=      5-min Rain = 0
KHA2 121438Z 21004KT 21/12 A3011 RMK A01 T02130120  RH  055%=      5-min Rain = 0
KHA2 121439Z 21005KT 21/12 A3011 RMK A01 T02130118  RH  054%=      5-min Rain = 0
KHA2 121440Z 21005KT 21/12 A3011 RMK A01 T02130119  RH  055%=      5-min Rain = 0
KHA2 121441Z 21005KT 21/12 A3011 RMK A01 T02140121  RH  055%=      5-min Rain = 0
KHA2 121442Z 21005KT 22/12 A3011 RMK A01 T02150122  RH  055%=      5-min Rain = 0
KHA2 121443Z 21004KT 22/12 A3011 RMK A01 T02160122  RH  055%=      5-min Rain = 0
KHA2 121444Z 21004KT 22/12 A3011 RMK A01 T02170122  RH  055%=      5-min Rain = 0
KHA2 121445Z 21004KT 22/12 A3011 RMK A01 T02170121  RH  055%=      5-min Rain = 0
KHA2 121446Z 21004KT 22/12 A3011 RMK A01 T02170123  RH  055%=      5-min Rain = 0
KHA2 121447Z 20003KT 22/12 A3011 RMK A01 T02180122  RH  054%=      5-min Rain = 0
KHA2 121448Z 22004KT 22/12 A3011 RMK A01 T02190122  RH  054%=      5-min Rain = 0
KHA2 121449Z 22004KT 22/12 A3011 RMK A01 T02190121  RH  054%=      5-min Rain = 0
KHA2 121450Z 20004KT 22/13 A3011 RMK A01 T02200125  RH  055%=      5-min Rain = 0
KHA2 121451Z 21003KT 22/12 A3011 RMK A01 T02220124  RH  054%=      5-min Rain = 0
KHA2 121452Z 22004KT 22/12 A3011 RMK A01 T02230124  RH  053%=      5-min Rain = 0
KHA2 121453Z 23003KT 22/12 A3011 RMK A01 T02230124  RH  053%=      5-min Rain = 0
KHA2 121454Z 23003KT 22/12 A3011 RMK A01 T02230124  RH  053%=      5-min Rain = 0
KHA2 121455Z 22003KT 22/12 A3011 RMK A01 T02240123  RH  053%=      5-min Rain = 0
KHA2 121456Z 23003KT 23/12 A3011 RMK A01 T02250123  RH  052%=      5-min Rain = 0
KHA2 121457Z 23004KT 23/12 A3011 RMK A01 T02250122  RH  052%=      5-min Rain = 0
KHA2 121458Z 24003KT 23/12 A3011 RMK A01 T02260120  RH  051%=      5-min Rain = 0
KHA2 121459Z 23004KT 23/12 A3011 RMK A01 T02270119  RH  051%=      5-min Rain = 0
KHA2 121500Z 22004KT 23/12 A3011 RMK A01 T02270119  RH  050%=      5-min Rain = 0
KHA2 121501Z 22005KT 23/12 A3011 RMK A01 T02280120  RH  050%=      5-min Rain = 0
KHA2 121502Z 23004KT 23/12 A301 RMK A01 T02300121  RH  051%=      5-min Rain = 0
KHA2 121503Z 25004KT 23/12 A301 RMK A01 T02310122  RH  050%=      5-min Rain = 0
KHA2 121504Z 27004KT 23/12 A301 RMK A01 T02310116  RH  048%=      5-min Rain = 0
KHA2 121505Z 25004KT 23/12 A301 RMK A01 T02300118  RH  049%=      5-min Rain = 0
KHA2 121506Z 23004KT 23/12 A301 RMK A01 T02300119  RH  049%=      5-min Rain = 0
KHA2 121507Z 22004KT 23/12 A301 RMK A01 T02310119  RH  049%=      5-min Rain = 0
KHA2 121508Z 24005KT 23/12 A301 RMK A01 T02320116  RH  048%=      5-min Rain = 0
KHA2 121509Z 25004KT 23/12 A301 RMK A01 T02330115  RH  048%=      5-min Rain = 0
KHA2 121510Z 25003KT 23/12 A301 RMK A01 T02320115  RH  048%=      5-min Rain = 0
KHA2 121511Z 24004KT 23/12 A301 RMK A01 T02320118  RH  049%=      5-min Rain = 0
KHA2 121512Z 24004KT 23/12 A301 RMK A01 T02330119  RH  049%=      5-min Rain = 0
KHA2 121513Z 25004KT 23/12 A301 RMK A01 T02340118  RH  048%=      5-min Rain = 0
KHA2 121514Z 25004KT 24/12 A301 RMK A01 T02350118  RH  048%=      5-min Rain = 0
KHA2 121515Z 24004KT 24/12 A301 RMK A01 T02350119  RH  048%=      5-min Rain = 0
KHA2 121516Z 25004KT 24/12 A301 RMK A01 T02350116  RH  047%=      5-min Rain = 0
KHA2 121517Z 26004KT 24/12 A301 RMK A01 T02350116  RH  047%=      5-min Rain = 0
KHA2 121518Z 25004KT 24/12 A301 RMK A01 T02350118  RH  048%=      5-min Rain = 0
KHA2 121519Z 27003KT 24/12 A301 RMK A01 T02360117  RH  047%=      5-min Rain = 0
KHA2 121520Z 25003KT 24/12 A301 RMK A01 T02360119  RH  048%=      5-min Rain = 0
KHA2 121521Z 25004KT 24/12 A301 RMK A01 T02380120  RH  047%=      5-min Rain = 0
KHA2 121522Z 26004KT 24/12 A301 RMK A01 T02390119  RH  047%=      5-min Rain = 0
KHA2 121523Z 26004KT 24/12 A301 RMK A01 T02400116  RH  046%=      5-min Rain = 0
KHA2 121524Z 26003KT 24/12 A301 RMK A01 T02400119  RH  047%=      5-min Rain = 0
KHA2 121525Z 26004KT 24/12 A301 RMK A01 T02400119  RH  047%=      5-min Rain = 0
KHA2 121526Z 26005KT 24/12 A301 RMK A01 T02400117  RH  046%=      5-min Rain = 0
KHA2 121527Z 25003KT 24/12 A301 RMK A01 T02410115  RH  045%=      5-min Rain = 0
KHA2 121528Z 25003KT 24/12 A301 RMK A01 T02410116  RH  045%=      5-min Rain = 0
KHA2 121529Z 28003KT 24/12 A301 RMK A01 T02410119  RH  046%=      5-min Rain = 0
KHA2 121530Z 28003KT 24/12 A301 RMK A01 T02440121  RH  046%=      5-min Rain = 0
KHA2 121531Z 29002KT 25/12 A301 RMK A01 T02460118  RH  045%=      5-min Rain = 0
KHA2 121532Z 26002KT 25/12 A301 RMK A01 T02460119  RH  045%=      5-min Rain = 0
KHA2 121533Z 28003KT 25/12 A301 RMK A01 T02460115  RH  044%=      5-min Rain = 0
KHA2 121534Z 29003KT 25/12 A301 RMK A01 T02460115  RH  044%=      5-min Rain = 0
KHA2 121535Z 29002KT 25/12 A301 RMK A01 T02460116  RH  044%=      5-min Rain = 0
KHA2 121536Z 31000KT 25/12 A301 RMK A01 T02460116  RH  044%=      5-min Rain = 0
KHA2 121537Z 24001KT 25/11 A301 RMK A01 T02470114  RH  043%=      5-min Rain = 0
KHA2 121538Z 22001KT 25/12 A301 RMK A01 T02490117  RH  044%=      5-min Rain = 0
KHA2 121539Z 18003KT 25/12 A301 RMK A01 T02500117  RH  043%=      5-min Rain = 0
KHA2 121540Z 18004KT 25/12 A301 RMK A01 T02510118  RH  043%=      5-min Rain = 0
KHA2 121541Z 18003KT 25/12 A301 RMK A01 T02510115  RH  043%=      5-min Rain = 0
KHA2 121542Z 17003KT 25/12 A301 RMK A01 T02510117  RH  043%=      5-min Rain = 0
KHA2 121543Z 16004KT 25/12 A301 RMK A01 T02510118  RH  043%=      5-min Rain = 0
KHA2 121544Z 15003KT 25/12 A301 RMK A01 T02520116  RH  043%=      5-min Rain = 0
KHA2 121545Z 15001KT 25/12 A301 RMK A01 T02520115  RH  042%=      5-min Rain = 0
KHA2 121546Z 20001KT 25/12 A301 RMK A01 T02530116  RH  042%=      5-min Rain = 0
KHA2 121547Z 20002KT 26/12 A301 RMK A01 T02550118  RH  042%=      5-min Rain = 0
KHA2 121548Z 24002KT 26/12 A301 RMK A01 T02560120  RH  043%=      5-min Rain = 0
KHA2 121549Z 25003KT 26/12 A301 RMK A01 T02560119  RH  042%=      5-min Rain = 0
KHA2 121550Z 26003KT 26/11 A301 RMK A01 T02570113  RH  041%=      5-min Rain = 0
KHA2 121551Z 27002KT 26/11 A301 RMK A01 T02550114  RH  041%=      5-min Rain = 0
KHA2 121552Z 26002KT 26/12 A301 RMK A01 T02550116  RH  042%=      5-min Rain = 0
KHA2 121553Z 22002KT 26/11 A301 RMK A01 T02550114  RH  041%=      5-min Rain = 0
KHA2 121554Z 19004KT 26/12 A301 RMK A01 T02550117  RH  042%=      5-min Rain = 0
KHA2 121555Z 20003KT 26/12 A301 RMK A01 T02570118  RH  042%=      5-min Rain = 0
KHA2 121556Z 20003KT 26/11 A301 RMK A01 T02580114  RH  041%=      5-min Rain = 0
KHA2 121557Z 20002KT 26/11 A301 RMK A01 T02580114  RH  041%=      5-min Rain = 0
KHA2 121558Z 20002KT 26/11 A301 RMK A01 T02580114  RH  040%=      5-min Rain = 0
KHA2 121559Z 21003KT 26/12 A301 RMK A01 T02600115  RH  040%=      5-min Rain = 0
KHA2 121600Z 20001KT 26/11 A301 RMK A01 T02600114  RH  040%=      5-min Rain = 0
KHA2 121601Z 00000KT 26/11 A301 RMK A01 T02600112  RH  040%=      5-min Rain = 0
KHA2 121602Z 24001KT 26/11 A301 RMK A01 T02620114  RH  039%=      5-min Rain = 0
KHA2 121603Z 23004KT 26/12 A301 RMK A01 T02640116  RH  040%=      5-min Rain = 0
KHA2 121604Z 23003KT 26/11 A301 RMK A01 T02620111  RH  039%=      5-min Rain = 0
KHA2 121605Z 29001KT 26/11 A301 RMK A01 T02600113  RH  040%=      5-min Rain = 0
KHA2 121606Z 30001KT 26/12 A301 RMK A01 T02610115  RH  040%=      5-min Rain = 0
KHA2 121607Z 26002KT 26/11 A301 RMK A01 T02620113  RH  039%=      5-min Rain = 0
KHA2 121608Z 27001KT 26/11 A301 RMK A01 T02610112  RH  039%=      5-min Rain = 0
KHA2 121609Z 27001KT 26/11 A301 RMK A01 T02610113  RH  040%=      5-min Rain = 0
KHA2 121610Z 19002KT 26/11 A301 RMK A01 T02620113  RH  039%=      5-min Rain = 0
KHA2 121611Z 18004KT 26/11 A301 RMK A01 T02630114  RH  039%=      5-min Rain = 0
KHA2 121612Z 18004KT 26/12 A301 RMK A01 T02640116  RH  040%=      5-min Rain = 0
KHA2 121613Z 16003KT 26/11 A301 RMK A01 T02640114  RH  039%=      5-min Rain = 0
KHA2 121614Z 20004KT 26/12 A301 RMK A01 T02640118  RH  040%=      5-min Rain = 0
KHA2 121615Z 24005KT 27/11 A301 RMK A01 T02650114  RH  039%=      5-min Rain = 0
KHA2 121616Z 24003KT 27/12 A301 RMK A01 T02660118  RH  040%=      5-min Rain = 0
KHA2 121617Z 24002KT 27/11 A301 RMK A01 T02680112  RH  038%=      5-min Rain = 0
KHA2 121618Z 33000KT 27/12 A301 RMK A01 T02670115  RH  039%=      5-min Rain = 0
KHA2 121619Z 35000KT 27/11 A301 RMK A01 T02680111  RH  037%=      5-min Rain = 0
KHA2 121620Z 22002KT 27/11 A301 RMK A01 T02680114  RH  038%=      5-min Rain = 0
KHA2 121621Z 23004KT 27/11 A301 RMK A01 T02690113  RH  038%=      5-min Rain = 0
KHA2 121622Z 23004KT 27/11 A301 RMK A01 T02690112  RH  037%=      5-min Rain = 0
KHA2 121623Z 23002KT 27/11 A301 RMK A01 T02690111  RH  037%=      5-min Rain = 0
KHA2 121624Z 24002KT 27/11 A301 RMK A01 T02690113  RH  038%=      5-min Rain = 0
KHA2 121625Z 24003KT 27/11 A301 RMK A01 T02690113  RH  038%=      5-min Rain = 0
KHA2 121626Z 21001KT 27/11 A301 RMK A01 T02690110  RH  037%=      5-min Rain = 0
KHA2 121627Z 16000KT 27/12 A301 RMK A01 T02700116  RH  038%=      5-min Rain = 0
KHA2 121628Z 20002KT 27/11 A301 RMK A01 T02720111  RH  037%=      5-min Rain = 0
KHA2 121629Z 20003KT 27/11 A301 RMK A01 T02720109  RH  036%=      5-min Rain = 0
KHA2 121630Z 15002KT 27/11 A301 RMK A01 T02730110  RH  036%=      5-min Rain = 0
KHA2 121631Z 16002KT 27/12 A301 RMK A01 T02740116  RH  037%=      5-min Rain = 0
KHA2 121632Z 18003KT 28/11 A301 RMK A01 T02770112  RH  036%=      5-min Rain = 0
KHA2 121633Z 17002KT 28/11 A301 RMK A01 T02780111  RH  035%=      5-min Rain = 0
KHA2 121634Z 17003KT 28/11 A301 RMK A01 T02780109  RH  035%=      5-min Rain = 0
KHA2 121635Z 14003KT 28/11 A3009 RMK A01 T02770110  RH  035%=      5-min Rain = 0
KHA2 121636Z 04000KT 28/11 A3009 RMK A01 T02770107  RH  035%=      5-min Rain = 0
KHA2 121637Z 19002KT 28/11 A3009 RMK A01 T02760111  RH  036%=      5-min Rain = 0
KHA2 121638Z 20003KT 28/11 A3009 RMK A01 T02770107  RH  035%=      5-min Rain = 0
KHA2 121639Z 23003KT 28/11 A3009 RMK A01 T02780108  RH  035%=      5-min Rain = 0
KHA2 121640Z 21001KT 28/11 A3009 RMK A01 T02780112  RH  035%=      5-min Rain = 0
KHA2 121641Z 26003KT 28/11 A3009 RMK A01 T02790108  RH  034%=      5-min Rain = 0
KHA2 121642Z 27004KT 28/11 A3009 RMK A01 T02800105  RH  034%=      5-min Rain = 0
KHA2 121643Z 27003KT 28/10 A3009 RMK A01 T02790104  RH  034%=      5-min Rain = 0
KHA2 121644Z 27003KT 28/11 A3009 RMK A01 T02800108  RH  034%=      5-min Rain = 0
KHA2 121645Z 29002KT 28/10 A3009 RMK A01 T02830102  RH  032%=      5-min Rain = 0
KHA2 121646Z 29004KT 28/10 A3009 RMK A01 T02840102  RH  032%=      5-min Rain = 0
KHA2 121647Z 29005KT 28/11 A3009 RMK A01 T02840105  RH  033%=      5-min Rain = 0
KHA2 121648Z 29005KT 28/11 A3009 RMK A01 T02830105  RH  033%=      5-min Rain = 0
KHA2 121649Z 28005KT 28/10 A3009 RMK A01 T02830103  RH  033%=      5-min Rain = 0
KHA2 121650Z 28004KT 28/10 A3009 RMK A01 T02820103  RH  033%=      5-min Rain = 0
KHA2 121651Z 24003KT 28/11 A3009 RMK A01 T02830108  RH  034%=      5-min Rain = 0
KHA2 121652Z 18002KT 29/11 A3009 RMK A01 T02870111  RH  034%=      5-min Rain = 0
KHA2 121653Z 20003KT 29/11 A3009 RMK A01 T02870113  RH  034%=      5-min Rain = 0
KHA2 121654Z 22001KT 29/11 A3009 RMK A01 T02860108  RH  033%=      5-min Rain = 0
KHA2 121655Z 17001KT 29/11 A3009 RMK A01 T02850112  RH  034%=      5-min Rain = 0
KHA2 121656Z 17000KT 29/11 A3009 RMK A01 T02860114  RH  035%=      5-min Rain = 0
KHA2 121657Z 21001KT 29/11 A3009 RMK A01 T02870112  RH  034%=      5-min Rain = 0
KHA2 121658Z 28003KT 29/11 A3009 RMK A01 T02870110  RH  033%=      5-min Rain = 0
KHA2 121659Z 27002KT 29/10 A3009 RMK A01 T02880103  RH  032%=      5-min Rain = 0
KHA2 121700Z 07000KT 29/10 A3009 RMK A01 T02880101  RH  031%=      5-min Rain = 0
KHA2 121701Z 03001KT 29/11 A3009 RMK A01 T02880105  RH  032%=      5-min Rain = 0
KHA2 121702Z 29004KT 29/11 A3009 RMK A01 T02890106  RH  032%=      5-min Rain = 0
KHA2 121703Z 27006KT 29/10 A3009 RMK A01 T02900101  RH  031%=      5-min Rain = 0
KHA2 121704Z 28006KT 29/10 A3009 RMK A01 T02900103  RH  031%=      5-min Rain = 0
KHA2 121705Z 27005KT 29/10 A3009 RMK A01 T02910103  RH  031%=      5-min Rain = 0
KHA2 121706Z 27006KT 29/10 A3009 RMK A01 T02930103  RH  031%=      5-min Rain = 0
KHA2 121707Z 27005KT 29/10 A3009 RMK A01 T02920102  RH  031%=      5-min Rain = 0
KHA2 121708Z 27005KT 29/11 A3009 RMK A01 T02920107  RH  032%=      5-min Rain = 0
KHA2 121709Z 26005KT 29/10 A3009 RMK A01 T02920103  RH  031%=      5-min Rain = 0
KHA2 121710Z 26004KT 29/10 A3009 RMK A01 T02900098  RH  030%=      5-min Rain = 0
KHA2 121711Z 29004KT 29/10 A3009 RMK A01 T02860098  RH  031%=      5-min Rain = 0
KHA2 121712Z 30003KT 29/10 A3009 RMK A01 T02850098  RH  031%=      5-min Rain = 0
KHA2 121713Z 26001KT 29/10 A3009 RMK A01 T02850099  RH  031%=      5-min Rain = 0
KHA2 121714Z 17001KT 29/10 A3009 RMK A01 T02850102  RH  032%=      5-min Rain = 0
KHA2 121715Z 10001KT 29/10 A3009 RMK A01 T02860098  RH  031%=      5-min Rain = 0
KHA2 121716Z 09002KT 29/10 A3009 RMK A01 T02860102  RH  032%=      5-min Rain = 0
KHA2 121717Z 12001KT 29/10 A3009 RMK A01 T02860102  RH  032%=      5-min Rain = 0
KHA2 121718Z 18001KT 29/11 A3009 RMK A01 T02880106  RH  032%=      5-min Rain = 0
KHA2 121719Z 25003KT 29/10 A3009 RMK A01 T02900104  RH  031%=      5-min Rain = 0
KHA2 121720Z 26005KT 29/10 A3008 RMK A01 T02920100  RH  030%=      5-min Rain = 0
KHA2 121721Z 27005KT 29/10 A3008 RMK A01 T02910098  RH  030%=      5-min Rain = 0
KHA2 121722Z 26004KT 29/10 A3008 RMK A01 T02880096  RH  030%=      5-min Rain = 0
KHA2 121723Z 25005KT 29/10 A3008 RMK A01 T02880102  RH  031%=      5-min Rain = 0
KHA2 121724Z 24003KT 29/10 A3008 RMK A01 T02910103  RH  031%=      5-min Rain = 0
KHA2 121725Z 26005KT 29/10 A3008 RMK A01 T02930100  RH  030%=      5-min Rain = 0
KHA2 121726Z 27002KT 29/11 A3008 RMK A01 T02920105  RH  031%=      5-min Rain = 0
KHA2 121727Z 27004KT 29/10 A3008 RMK A01 T02940101  RH  030%=      5-min Rain = 0
KHA2 121728Z 24003KT 29/10 A3008 RMK A01 T02940100  RH  030%=      5-min Rain = 0
KHA2 121729Z 25003KT 29/10 A3008 RMK A01 T02930101  RH  030%=      5-min Rain = 0
KHA2 121730Z 24002KT 30/10 A3008 RMK A01 T02960101  RH  030%=      5-min Rain = 0
KHA2 121731Z 28004KT 30/10 A3008 RMK A01 T02960100  RH  030%=      5-min Rain = 0
KHA2 121732Z 28005KT 30/10 A3008 RMK A01 T02960101  RH  030%=      5-min Rain = 0
KHA2 121733Z 28001KT 30/10 A3008 RMK A01 T02950099  RH  030%=      5-min Rain = 0
KHA2 121734Z 23003KT 29/10 A3008 RMK A01 T02940102  RH  030%=      5-min Rain = 0
KHA2 121735Z 24002KT 29/10 A3008 RMK A01 T02930099  RH  030%=      5-min Rain = 0
KHA2 121736Z 13000KT 29/10 A3008 RMK A01 T02930101  RH  030%=      5-min Rain = 0
KHA2 121737Z 14002KT 29/11 A3008 RMK A01 T02940106  RH  031%=      5-min Rain = 0
KHA2 121738Z 17003KT 30/10 A3008 RMK A01 T02950104  RH  030%=      5-min Rain = 0
KHA2 121739Z 17002KT 30/10 A3008 RMK A01 T02960104  RH  030%=      5-min Rain = 0
KHA2 121740Z 21004KT 30/11 A3008 RMK A01 T02980108  RH  031%=      5-min Rain = 0
KHA2 121741Z 23005KT 30/10 A3008 RMK A01 T03000103  RH  029%=      5-min Rain = 0
KHA2 121742Z 22004KT 30/10 A3008 RMK A01 T02990102  RH  030%=      5-min Rain = 0
KHA2 121743Z 25004KT 30/10 A3007 RMK A01 T02990103  RH  030%=      5-min Rain = 0
KHA2 121744Z 28002KT 30/10 A3007 RMK A01 T02990100  RH  029%=      5-min Rain = 0
KHA2 121745Z 23003KT 30/10 A3007 RMK A01 T02970101  RH  030%=      5-min Rain = 0
KHA2 121746Z 22005KT 30/11 A3007 RMK A01 T02980107  RH  031%=      5-min Rain = 0
KHA2 121747Z 24004KT 30/11 A3007 RMK A01 T03030107  RH  030%=      5-min Rain = 0
KHA2 121748Z 24004KT 31/10 A3007 RMK A01 T03050103  RH  029%=      5-min Rain = 0
KHA2 121749Z 23002KT 30/10 A3007 RMK A01 T03030103  RH  029%=      5-min Rain = 0
KHA2 121750Z 21002KT 30/10 A3007 RMK A01 T03030104  RH  029%=      5-min Rain = 0
KHA2 121751Z 24003KT 30/10 A3007 RMK A01 T03030104  RH  029%=      5-min Rain = 0
KHA2 121752Z 24003KT 30/10 A3007 RMK A01 T03030101  RH  029%=      5-min Rain = 0
KHA2 121753Z 27001KT 30/10 A3007 RMK A01 T03020103  RH  029%=      5-min Rain = 0
KHA2 121754Z 25003KT 30/11 A3007 RMK A01 T03020106  RH  030%=      5-min Rain = 0
KHA2 121755Z 25006KT 30/10 A3007 RMK A01 T03020102  RH  029%=      5-min Rain = 0
KHA2 121756Z 25005KT 30/10 A3007 RMK A01 T03030100  RH  028%=      5-min Rain = 0
KHA2 121757Z 21003KT 30/10 A3007 RMK A01 T03020101  RH  029%=      5-min Rain = 0
KHA2 121758Z 19003KT 30/10 A3007 RMK A01 T03010100  RH  029%=      5-min Rain = 0
KHA2 121759Z 18002KT 30/10 A3007 RMK A01 T03020100  RH  029%=      5-min Rain = 0
KHA2 121800Z 15001KT 30/10 A3006 RMK A01 T03020097  RH  028%=      5-min Rain = 0
KHA2 121801Z 13003KT 30/10 A3006 RMK A01 T03020103  RH  029%=      5-min Rain = 0
KHA2 121802Z 15004KT 30/10 A3006 RMK A01 T03030099  RH  028%=      5-min Rain = 0
KHA2 121803Z 19003KT 30/10 A3006 RMK A01 T03030099  RH  028%=      5-min Rain = 0
KHA2 121804Z 20002KT 30/10 A3006 RMK A01 T03040096  RH  028%=      5-min Rain = 0
KHA2 121805Z 16001KT 30/09 A3006 RMK A01 T03040094  RH  027%=      5-min Rain = 0
KHA2 121806Z 29003KT 30/10 A3006 RMK A01 T03040095  RH  027%=      5-min Rain = 0
KHA2 121807Z 29006KT 31/10 A3006 RMK A01 T03070095  RH  027%=      5-min Rain = 0
KHA2 121808Z 30005KT 31/09 A3006 RMK A01 T03100090  RH  026%=      5-min Rain = 0
KHA2 121809Z 29005KT 31/09 A3006 RMK A01 T03090091  RH  026%=      5-min Rain = 0
KHA2 121810Z 30005KT 31/09 A3006 RMK A01 T03090090  RH  026%=      5-min Rain = 0
KHA2 121811Z 31005KT 31/09 A3006 RMK A01 T03090087  RH  025%=      5-min Rain = 0
KHA2 121812Z 30004KT 31/09 A3006 RMK A01 T03090091  RH  026%=      5-min Rain = 0
KHA2 121813Z 31003KT 31/09 A3006 RMK A01 T03110089  RH  025%=      5-min Rain = 0
KHA2 121814Z 30002KT 31/09 A3006 RMK A01 T03120087  RH  025%=      5-min Rain = 0
KHA2 121815Z 26005KT 31/09 A3006 RMK A01 T03120089  RH  025%=      5-min Rain = 0
KHA2 121816Z 27005KT 31/09 A3006 RMK A01 T03110086  RH  025%=      5-min Rain = 0
KHA2 121817Z 27002KT 31/09 A3006 RMK A01 T03080086  RH  025%=      5-min Rain = 0
KHA2 121818Z 25002KT 31/09 A3006 RMK A01 T03070087  RH  026%=      5-min Rain = 0
KHA2 121819Z 26002KT 31/08 A3006 RMK A01 T03070084  RH  025%=      5-min Rain = 0
KHA2 121820Z 27002KT 31/09 A3006 RMK A01 T03080087  RH  025%=      5-min Rain = 0
KHA2 121821Z 27004KT 31/08 A3006 RMK A01 T03090084  RH  025%=      5-min Rain = 0
KHA2 121822Z 27004KT 31/08 A3006 RMK A01 T03100083  RH  024%=      5-min Rain = 0
KHA2 121823Z 27002KT 31/08 A3006 RMK A01 T03100078  RH  024%=      5-min Rain = 0
KHA2 121824Z 22002KT 31/08 A3005 RMK A01 T03100084  RH  025%=      5-min Rain = 0
KHA2 121825Z 19002KT 31/08 A3005 RMK A01 T03110084  RH  024%=      5-min Rain = 0
KHA2 121826Z 20002KT 31/09 A3005 RMK A01 T03130086  RH  024%=      5-min Rain = 0
KHA2 121827Z 24003KT 32/09 A3005 RMK A01 T03150087  RH  024%=      5-min Rain = 0
KHA2 121828Z 23005KT 32/08 A3005 RMK A01 T03150084  RH  024%=      5-min Rain = 0
KHA2 121829Z 25005KT 32/09 A3005 RMK A01 T03160086  RH  024%=      5-min Rain = 0
KHA2 121830Z 26007KT 32/09 A3005 RMK A01 T03170088  RH  024%=      5-min Rain = 0
KHA2 121831Z 24004KT 32/09 A3005 RMK A01 T03160087  RH  024%=      5-min Rain = 0
KHA2 121832Z 25004KT 32/09 A3005 RMK A01 T03150089  RH  025%=      5-min Rain = 0
KHA2 121833Z 24004KT 32/08 A3005 RMK A01 T03150084  RH  024%=      5-min Rain = 0
KHA2 121834Z 22003KT 31/08 A3005 RMK A01 T03140082  RH  024%=      5-min Rain = 0
KHA2 121835Z 22003KT 31/08 A3005 RMK A01 T03130084  RH  024%=      5-min Rain = 0
KHA2 121836Z 24004KT 32/09 A3005 RMK A01 T03150089  RH  025%=      5-min Rain = 0
KHA2 121837Z 24001KT 32/09 A3005 RMK A01 T03160085  RH  024%=      5-min Rain = 0
KHA2 121838Z 13000KT 31/09 A3005 RMK A01 T03140086  RH  024%=      5-min Rain = 0
KHA2 121839Z 17002KT 31/09 A3005 RMK A01 T03130086  RH  025%=      5-min Rain = 0
KHA2 121840Z 13002KT 31/09 A3005 RMK A01 T03120086  RH  024%=      5-min Rain = 0
KHA2 121841Z 10000KT 31/09 A3005 RMK A01 T03110089  RH  025%=      5-min Rain = 0
KHA2 121842Z 12000KT 31/09 A3005 RMK A01 T03100087  RH  025%=      5-min Rain = 0
KHA2 121843Z 09004KT 31/09 A3005 RMK A01 T03120090  RH  025%=      5-min Rain = 0
KHA2 121844Z 05004KT 31/09 A3005 RMK A01 T03120090  RH  025%=      5-min Rain = 0
KHA2 121845Z 03002KT 31/10 A3004 RMK A01 T03130095  RH  026%=      5-min Rain = 0
KHA2 121846Z 03003KT 31/10 A3004 RMK A01 T03140098  RH  026%=      5-min Rain = 0
KHA2 121847Z 06004KT 32/10 A3004 RMK A01 T03170101  RH  027%=      5-min Rain = 0
KHA2 121848Z 04006KT 32/10 A3004 RMK A01 T03190099  RH  026%=      5-min Rain = 0
KHA2 121849Z 05005KT 32/10 A3004 RMK A01 T03190096  RH  025%=      5-min Rain = 0
KHA2 121850Z 07005KT 32/10 A3004 RMK A01 T03180095  RH  025%=      5-min Rain = 0
KHA2 121851Z 08005KT 32/10 A3004 RMK A01 T03170097  RH  026%=      5-min Rain = 0
KHA2 121852Z 08004KT 32/10 A3004 RMK A01 T03160095  RH  026%=      5-min Rain = 0
KHA2 121853Z 09004KT 32/10 A3004 RMK A01 T03170101  RH  026%=      5-min Rain = 0
KHA2 121854Z 09005KT 32/10 A3004 RMK A01 T03170098  RH  026%=      5-min Rain = 0
KHA2 121855Z 09006KT 32/10 A3004 RMK A01 T03170096  RH  026%=      5-min Rain = 0
KHA2 121856Z 08007KT 32/10 A3004 RMK A01 T03170096  RH  026%=      5-min Rain = 0
KHA2 121857Z 09004KT 32/09 A3004 RMK A01 T03150093  RH  025%=      5-min Rain = 0
KHA2 121858Z 12003KT 32/10 A3004 RMK A01 T03150095  RH  026%=      5-min Rain = 0
KHA2 121859Z 14003KT 32/09 A3004 RMK A01 T03160091  RH  025%=      5-min Rain = 0
KHA2 121900Z 16002KT 32/09 A3004 RMK A01 T03160087  RH  024%=      5-min Rain = 0
KHA2 121901Z 18002KT 32/09 A3004 RMK A01 T03160085  RH  024%=      5-min Rain = 0
KHA2 121902Z 22003KT 32/08 A3003 RMK A01 T03150084  RH  024%=      5-min Rain = 0
KHA2 121903Z 26001KT 31/09 A3003 RMK A01 T03140085  RH  024%=      5-min Rain = 0
KHA2 121904Z 00003KT 31/09 A3003 RMK A01 T03140091  RH  025%=      5-min Rain = 0
KHA2 121905Z 34005KT 32/09 A3003 RMK A01 T03190093  RH  025%=      5-min Rain = 0
KHA2 121906Z 33004KT 32/09 A3003 RMK A01 T03220089  RH  024%=      5-min Rain = 0
KHA2 121907Z 28003KT 32/09 A3003 RMK A01 T03240086  RH  023%=      5-min Rain = 0
KHA2 121908Z 28002KT 33/08 A3003 RMK A01 T03250084  RH  022%=      5-min Rain = 0
KHA2 121909Z 05002KT 33/09 A3003 RMK A01 T03250091  RH  024%=      5-min Rain = 0
KHA2 121910Z 01004KT 32/10 A3003 RMK A01 T03240096  RH  025%=      5-min Rain = 0
KHA2 121911Z 33004KT 32/09 A3003 RMK A01 T03230093  RH  024%=      5-min Rain = 0
KHA2 121912Z 32003KT 32/09 A3003 RMK A01 T03240089  RH  023%=      5-min Rain = 0
KHA2 121913Z 31000KT 32/10 A3003 RMK A01 T03230098  RH  025%=      5-min Rain = 0
KHA2 121914Z 08000KT 32/10 A3003 RMK A01 T03240101  RH  025%=      5-min Rain = 0
KHA2 121915Z 24001KT 33/10 A3003 RMK A01 T03270100  RH  025%=      5-min Rain = 0
KHA2 121916Z 25001KT 33/09 A3003 RMK A01 T03300094  RH  023%=      5-min Rain = 0
KHA2 121917Z 23003KT 33/09 A3003 RMK A01 T03320089  RH  022%=      5-min Rain = 0
KHA2 121918Z 12001KT 33/09 A3003 RMK A01 T03320088  RH  022%=      5-min Rain = 0
KHA2 121919Z 14001KT 33/09 A3003 RMK A01 T03310092  RH  023%=      5-min Rain = 0
KHA2 121920Z 31004KT 33/08 A3003 RMK A01 T03310084  RH  022%=      5-min Rain = 0
KHA2 121921Z 30004KT 33/08 A3003 RMK A01 T03300079  RH  021%=      5-min Rain = 0
KHA2 121922Z 32005KT 33/08 A3003 RMK A01 T03270079  RH  022%=      5-min Rain = 0
KHA2 121923Z 33006KT 33/08 A3002 RMK A01 T03270081  RH  022%=      5-min Rain = 0
KHA2 121924Z 35005KT 33/08 A3002 RMK A01 T03280081  RH  022%=      5-min Rain = 0
KHA2 121925Z 34005KT 33/09 A3002 RMK A01 T03280085  RH  022%=      5-min Rain = 0
KHA2 121926Z 32004KT 33/08 A3002 RMK A01 T03290082  RH  022%=      5-min Rain = 0
KHA2 121927Z 31006KT 33/08 A3002 RMK A01 T03280080  RH  022%=      5-min Rain = 0
KHA2 121928Z 32004KT 33/08 A3002 RMK A01 T03270081  RH  022%=      5-min Rain = 0
KHA2 121929Z 30002KT 33/08 A3002 RMK A01 T03270080  RH  022%=      5-min Rain = 0
KHA2 121930Z 27005KT 33/08 A3002 RMK A01 T03270082  RH  022%=      5-min Rain = 0
KHA2 121931Z 25003KT 33/08 A3002 RMK A01 T03280080  RH  022%=      5-min Rain = 0
KHA2 121932Z 21002KT 33/08 A3002 RMK A01 T03270083  RH  022%=      5-min Rain = 0
KHA2 121933Z 26003KT 33/08 A3002 RMK A01 T03270080  RH  022%=      5-min Rain = 0
KHA2 121934Z 27005KT 33/08 A3002 RMK A01 T03260080  RH  022%=      5-min Rain = 0
KHA2 121935Z 25003KT 32/08 A3002 RMK A01 T03240079  RH  022%=      5-min Rain = 0
KHA2 121936Z 31004KT 32/08 A3002 RMK A01 T03230080  RH  022%=      5-min Rain = 0
KHA2 121937Z 34003KT 32/08 A3002 RMK A01 T03220080  RH  022%=      5-min Rain = 0
KHA2 121938Z 28002KT 32/08 A3002 RMK A01 T03210078  RH  022%=      5-min Rain = 0
KHA2 121939Z 33003KT 32/08 A3002 RMK A01 T03190079  RH  023%=      5-min Rain = 0
KHA2 121940Z 34006KT 32/08 A3002 RMK A01 T03200084  RH  023%=      5-min Rain = 0
KHA2 121941Z 35008KT 32/08 A3002 RMK A01 T03230082  RH  022%=      5-min Rain = 0
KHA2 121942Z 35010KT 32/08 A3002 RMK A01 T03240082  RH  022%=      5-min Rain = 0
KHA2 121943Z 36010KT 32/08 A3002 RMK A01 T03240083  RH  023%=      5-min Rain = 0
KHA2 121944Z 35009KT 32/08 A3001 RMK A01 T03230084  RH  023%=      5-min Rain = 0
KHA2 121945Z 35007KT 32/08 A3001 RMK A01 T03220084  RH  023%=      5-min Rain = 0
KHA2 121946Z 36006KT 32/08 A3001 RMK A01 T03210082  RH  023%=      5-min Rain = 0
KHA2 121947Z 36006KT 32/08 A3001 RMK A01 T03180082  RH  023%=      5-min Rain = 0
KHA2 121948Z 35004KT 32/08 A3001 RMK A01 T03170080  RH  023%=      5-min Rain = 0
KHA2 121949Z 35005KT 32/08 A3001 RMK A01 T03170084  RH  024%=      5-min Rain = 0
KHA2 121950Z 35007KT 32/08 A3001 RMK A01 T03190083  RH  023%=      5-min Rain = 0
KHA2 121951Z 35006KT 32/08 A3001 RMK A01 T03200081  RH  023%=      5-min Rain = 0
KHA2 121952Z 34003KT 32/08 A3001 RMK A01 T03200079  RH  022%=      5-min Rain = 0
KHA2 121953Z 32001KT 32/08 A3001 RMK A01 T03180081  RH  023%=      5-min Rain = 0
KHA2 121954Z 35001KT 32/09 A3001 RMK A01 T03180086  RH  024%=      5-min Rain = 0
KHA2 121955Z 24001KT 32/08 A3001 RMK A01 T03180084  RH  023%=      5-min Rain = 0
KHA2 121956Z 33005KT 32/09 A3001 RMK A01 T03190087  RH  024%=      5-min Rain = 0
KHA2 121957Z 33003KT 32/08 A3001 RMK A01 T03190082  RH  023%=      5-min Rain = 0
KHA2 121958Z 35003KT 32/09 A3001 RMK A01 T03180085  RH  024%=      5-min Rain = 0
KHA2 121959Z 32005KT 32/08 A3001 RMK A01 T03190083  RH  023%=      5-min Rain = 0
KHA2 122000Z 30004KT 32/08 A3001 RMK A01 T03200084  RH  023%=      5-min Rain = 0
KHA2 122001Z 31002KT 32/08 A3001 RMK A01 T03210084  RH  023%=      5-min Rain = 0
KHA2 122002Z 30002KT 32/08 A3001 RMK A01 T03220084  RH  023%=      5-min Rain = 0
KHA2 122003Z 28002KT 32/08 A3001 RMK A01 T03220082  RH  023%=      5-min Rain = 0
KHA2 122004Z 27003KT 32/08 A3001 RMK A01 T03220081  RH  023%=      5-min Rain = 0
KHA2 122005Z 26003KT 32/08 A3001 RMK A01 T03220082  RH  023%=      5-min Rain = 0
KHA2 122006Z 24002KT 32/08 A3001 RMK A01 T03220081  RH  022%=      5-min Rain = 0
KHA2 122007Z 09002KT 32/09 A3001 RMK A01 T03210088  RH  024%=      5-min Rain = 0
KHA2 122008Z 07004KT 32/09 A3001 RMK A01 T03210091  RH  024%=      5-min Rain = 0
KHA2 122009Z 07002KT 32/09 A3001 RMK A01 T03200086  RH  024%=      5-min Rain = 0
KHA2 122010Z 06003KT 32/09 A3001 RMK A01 T03190085  RH  024%=      5-min Rain = 0
KHA2 122011Z 07004KT 32/09 A30 RMK A01 T03180085  RH  024%=      5-min Rain = 0
KHA2 122012Z 05004KT 32/08 A30 RMK A01 T03180080  RH  023%=      5-min Rain = 0
KHA2 122013Z 04003KT 32/08 A30 RMK A01 T03180084  RH  023%=      5-min Rain = 0
KHA2 122014Z 06002KT 32/08 A30 RMK A01 T03180078  RH  023%=      5-min Rain = 0
KHA2 122015Z 21001KT 32/08 A30 RMK A01 T03180080  RH  023%=      5-min Rain = 0
KHA2 122016Z 25003KT 32/08 A30 RMK A01 T03190080  RH  023%=      5-min Rain = 0
KHA2 122017Z 31002KT 32/09 A30 RMK A01 T03220086  RH  023%=      5-min Rain = 0
KHA2 122018Z 01005KT 33/09 A30 RMK A01 T03260088  RH  023%=      5-min Rain = 0
KHA2 122019Z 36005KT 33/09 A30 RMK A01 T03290092  RH  023%=      5-min Rain = 0
KHA2 122020Z 34003KT 33/09 A30 RMK A01 T03300086  RH  022%=      5-min Rain = 0
KHA2 122021Z 35004KT 33/09 A30 RMK A01 T03300088  RH  023%=      5-min Rain = 0
KHA2 122022Z 03004KT 33/09 A30 RMK A01 T03320094  RH  023%=      5-min Rain = 0
KHA2 122023Z 06005KT 33/09 A30 RMK A01 T03330093  RH  023%=      5-min Rain = 0
KHA2 122024Z 07007KT 33/09 A30 RMK A01 T03330093  RH  023%=      5-min Rain = 0
KHA2 122025Z 09006KT 33/09 A30 RMK A01 T03310086  RH  022%=      5-min Rain = 0
KHA2 122026Z 11005KT 33/09 A30 RMK A01 T03270085  RH  022%=      5-min Rain = 0
KHA2 122027Z 12004KT 33/09 A30 RMK A01 T03250090  RH  023%=      5-min Rain = 0
KHA2 122028Z 09003KT 33/09 A30 RMK A01 T03270089  RH  023%=      5-min Rain = 0
KHA2 122029Z 08004KT 33/09 A30 RMK A01 T03280091  RH  023%=      5-min Rain = 0
KHA2 122030Z 02007KT 33/10 A2999 RMK A01 T03310098  RH  024%=      5-min Rain = 0
KHA2 122031Z 03006KT 33/09 A2999 RMK A01 T03320090  RH  023%=      5-min Rain = 0
KHA2 122032Z 03006KT 33/09 A2999 RMK A01 T03310091  RH  023%=      5-min Rain = 0
KHA2 122033Z 05007KT 33/09 A2999 RMK A01 T03300089  RH  023%=      5-min Rain = 0
KHA2 122034Z 06006KT 33/09 A2999 RMK A01 T03290089  RH  023%=      5-min Rain = 0
KHA2 122035Z 09004KT 33/09 A2999 RMK A01 T03270086  RH  023%=      5-min Rain = 0
KHA2 122036Z 05002KT 33/10 A2999 RMK A01 T03260095  RH  024%=      5-min Rain = 0
KHA2 122037Z 07005KT 33/10 A2999 RMK A01 T03290096  RH  024%=      5-min Rain = 0
KHA2 122038Z 09004KT 33/09 A2999 RMK A01 T03310093  RH  023%=      5-min Rain = 0
KHA2 122039Z 08004KT 33/09 A2999 RMK A01 T03300090  RH  023%=      5-min Rain = 0
KHA2 122040Z 07004KT 33/09 A2999 RMK A01 T03290094  RH  024%=      5-min Rain = 0
KHA2 122041Z 05001KT 33/09 A2999 RMK A01 T03290088  RH  023%=      5-min Rain = 0
KHA2 122042Z 27003KT 33/09 A2999 RMK A01 T03290087  RH  022%=      5-min Rain = 0
KHA2 122043Z 24005KT 33/08 A2999 RMK A01 T03310080  RH  021%=      5-min Rain = 0
KHA2 122044Z 25004KT 33/08 A2999 RMK A01 T03310078  RH  021%=      5-min Rain = 0
KHA2 122045Z 26002KT 33/08 A2999 RMK A01 T03300078  RH  021%=      5-min Rain = 0
KHA2 122046Z 29006KT 33/08 A2999 RMK A01 T03310084  RH  022%=      5-min Rain = 0
KHA2 122047Z 31006KT 34/08 A2999 RMK A01 T03350084  RH  021%=      5-min Rain = 0
KHA2 122048Z 33006KT 33/08 A2998 RMK A01 T03340079  RH  021%=      5-min Rain = 0
KHA2 122049Z 35008KT 33/08 A2998 RMK A01 T03330081  RH  021%=      5-min Rain = 0
KHA2 122050Z 01006KT 33/08 A2998 RMK A01 T03340084  RH  021%=      5-min Rain = 0
KHA2 122051Z 33006KT 33/08 A2998 RMK A01 T03340084  RH  021%=      5-min Rain = 0
KHA2 122052Z 33008KT 34/08 A2998 RMK A01 T03350078  RH  020%=      5-min Rain = 0
KHA2 122053Z 33005KT 34/08 A2998 RMK A01 T03350079  RH  021%=      5-min Rain = 0
KHA2 122054Z 31007KT 34/08 A2998 RMK A01 T03360081  RH  021%=      5-min Rain = 0
KHA2 122055Z 32006KT 34/08 A2998 RMK A01 T03370078  RH  020%=      5-min Rain = 0
KHA2 122056Z 29004KT 34/08 A2998 RMK A01 T03360075  RH  020%=      5-min Rain = 0
KHA2 122057Z 27003KT 33/08 A2998 RMK A01 T03340077  RH  020%=      5-min Rain = 0
KHA2 122058Z 26001KT 33/08 A2998 RMK A01 T03330079  RH  021%=      5-min Rain = 0
KHA2 122059Z 33004KT 33/08 A2998 RMK A01 T03340082  RH  021%=      5-min Rain = 0
KHA2 122100Z 01007KT 34/09 A2998 RMK A01 T03350087  RH  022%=      5-min Rain = 0
KHA2 122101Z 35010KT 34/08 A2998 RMK A01 T03370084  RH  021%=      5-min Rain = 0
KHA2 122102Z 35005KT 34/08 A2998 RMK A01 T03350077  RH  020%=      5-min Rain = 0
KHA2 122103Z 34004KT 33/08 A2998 RMK A01 T03320078  RH  021%=      5-min Rain = 0
KHA2 122104Z 01006KT 33/08 A2998 RMK A01 T03310081  RH  021%=      5-min Rain = 0
KHA2 122105Z 35006KT 33/09 A2998 RMK A01 T03320085  RH  022%=      5-min Rain = 0
KHA2 122106Z 01004KT 34/08 A2998 RMK A01 T03360084  RH  021%=      5-min Rain = 0
KHA2 122107Z 00007KT 34/09 A2998 RMK A01 T03360089  RH  022%=      5-min Rain = 0
KHA2 122108Z 36008KT 34/08 A2998 RMK A01 T03360084  RH  021%=      5-min Rain = 0
KHA2 122109Z 35009KT 34/08 A2998 RMK A01 T03380084  RH  021%=      5-min Rain = 0
KHA2 122110Z 33008KT 34/08 A2998 RMK A01 T03380080  RH  020%=      5-min Rain = 0
KHA2 122111Z 33004KT 34/08 A2998 RMK A01 T03360078  RH  020%=      5-min Rain = 0
KHA2 122112Z 34002KT 33/08 A2998 RMK A01 T03340078  RH  021%=      5-min Rain = 0
KHA2 122113Z 30001KT 33/08 A2997 RMK A01 T03330079  RH  021%=      5-min Rain = 0
KHA2 122114Z 32003KT 34/08 A2997 RMK A01 T03350084  RH  021%=      5-min Rain = 0
KHA2 122115Z 32004KT 34/09 A2997 RMK A01 T03360085  RH  021%=      5-min Rain = 0
KHA2 122116Z 28007KT 34/09 A2997 RMK A01 T03390088  RH  021%=      5-min Rain = 0
KHA2 122117Z 28008KT 34/08 A2997 RMK A01 T03400084  RH  021%=      5-min Rain = 0
KHA2 122118Z 27006KT 34/08 A2997 RMK A01 T03390083  RH  021%=      5-min Rain = 0
KHA2 122119Z 27005KT 34/08 A2997 RMK A01 T03370084  RH  021%=      5-min Rain = 0
KHA2 122120Z 31005KT 34/09 A2997 RMK A01 T03380086  RH  021%=      5-min Rain = 0
KHA2 122121Z 33007KT 34/09 A2997 RMK A01 T03400086  RH  021%=      5-min Rain = 0
KHA2 122122Z 34006KT 34/09 A2997 RMK A01 T03380087  RH  021%=      5-min Rain = 0
KHA2 122123Z 33004KT 34/09 A2997 RMK A01 T03360086  RH  021%=      5-min Rain = 0
KHA2 122124Z 31003KT 33/08 A2997 RMK A01 T03330084  RH  021%=      5-min Rain = 0
KHA2 122125Z 02002KT 33/08 A2997 RMK A01 T03300084  RH  022%=      5-min Rain = 0
KHA2 122126Z 05004KT 33/09 A2997 RMK A01 T03280086  RH  022%=      5-min Rain = 0
KHA2 122127Z 07003KT 33/08 A2997 RMK A01 T03270084  RH  022%=      5-min Rain = 0
KHA2 122128Z 13003KT 33/09 A2997 RMK A01 T03260092  RH  024%=      5-min Rain = 0
KHA2 122129Z 17002KT 33/09 A2997 RMK A01 T03260089  RH  023%=      5-min Rain = 0
KHA2 122130Z 33006KT 33/09 A2997 RMK A01 T03270089  RH  023%=      5-min Rain = 0
KHA2 122131Z 01009KT 33/09 A2997 RMK A01 T03330092  RH  023%=      5-min Rain = 0
KHA2 122132Z 35011KT 34/10 A2997 RMK A01 T03370097  RH  023%=      5-min Rain = 0
KHA2 122133Z 32009KT 34/09 A2997 RMK A01 T03390086  RH  021%=      5-min Rain = 0
KHA2 122134Z 30010KT 34/09 A2996 RMK A01 T03400085  RH  021%=      5-min Rain = 0
KHA2 122135Z 34010G15KT 34/09 A2996 RMK A01 T03400087  RH  021%=      5-min Rain = 0
KHA2 122136Z 05013KT 34/10 A2996 RMK A01 T03370098  RH  023%=      5-min Rain = 0
KHA2 122137Z 07009KT 33/10 A2997 RMK A01 T03320103  RH  025%=      5-min Rain = 0
KHA2 122138Z 05006KT 33/10 A2997 RMK A01 T03290095  RH  024%=      5-min Rain = 0
KHA2 122139Z 04006KT 33/09 A2997 RMK A01 T03270086  RH  023%=      5-min Rain = 0
KHA2 122140Z 01007KT 33/09 A2997 RMK A01 T03250092  RH  024%=      5-min Rain = 0
KHA2 122141Z 05007KT 33/09 A2997 RMK A01 T03260093  RH  024%=      5-min Rain = 0
KHA2 122142Z 03007G12KT 33/10 A2997 RMK A01 T03260097  RH  024%=      5-min Rain = 0
KHA2 122143Z 05010KT 33/10 A2997 RMK A01 T03260096  RH  024%=      5-min Rain = 0
KHA2 122144Z 05008KT 33/09 A2997 RMK A01 T03260092  RH  024%=      5-min Rain = 0
KHA2 122145Z 06008KT 33/09 A2997 RMK A01 T03250094  RH  024%=      5-min Rain = 0
KHA2 122146Z 05005KT 32/09 A2997 RMK A01 T03240090  RH  024%=      5-min Rain = 0
KHA2 122147Z 06004KT 32/09 A2997 RMK A01 T03230094  RH  024%=      5-min Rain = 0
KHA2 122148Z 08007KT 32/10 A2997 RMK A01 T03230099  RH  025%=      5-min Rain = 0
KHA2 122149Z 09005KT 32/09 A2997 RMK A01 T03220092  RH  024%=      5-min Rain = 0
KHA2 122150Z 09007KT 32/10 A2997 RMK A01 T03210101  RH  026%=      5-min Rain = 0
KHA2 122151Z 10007KT 32/10 A2997 RMK A01 T03200100  RH  026%=      5-min Rain = 0
KHA2 122152Z 09005KT 32/11 A2997 RMK A01 T03200107  RH  027%=      5-min Rain = 0
KHA2 122153Z 07006KT 32/11 A2997 RMK A01 T03190105  RH  027%=      5-min Rain = 0
KHA2 122154Z 07007KT 32/10 A2997 RMK A01 T03190104  RH  027%=      5-min Rain = 0
KHA2 122155Z 09008KT 32/11 A2997 RMK A01 T03180109  RH  028%=      5-min Rain = 0
KHA2 122156Z 07008KT 32/10 A2997 RMK A01 T03170104  RH  027%=      5-min Rain = 0
KHA2 122157Z 07006KT 32/09 A2997 RMK A01 T03170089  RH  024%=      5-min Rain = 0
KHA2 122158Z 09004KT 32/11 A2997 RMK A01 T03170105  RH  027%=      5-min Rain = 0
KHA2 122159Z 09006KT 32/12 A2997 RMK A01 T03170120  RH  030%=      5-min Rain = 0
KHA2 122200Z 08007KT 32/12 A2997 RMK A01 T03160116  RH  029%=      5-min Rain = 0
KHA2 122201Z 10007KT 32/12 A2997 RMK A01 T03160119  RH  030%=      5-min Rain = 0
KHA2 122202Z 10008KT 32/12 A2997 RMK A01 T03160117  RH  030%=      5-min Rain = 0
KHA2 122203Z 11008KT 32/12 A2997 RMK A01 T03150117  RH  030%=      5-min Rain = 0
KHA2 122204Z 10007KT 32/11 A2997 RMK A01 T03150114  RH  029%=      5-min Rain = 0
KHA2 122205Z 09007KT 31/12 A2997 RMK A01 T03140118  RH  030%=      5-min Rain = 0
KHA2 122206Z 09006KT 32/11 A2997 RMK A01 T03150114  RH  029%=      5-min Rain = 0
KHA2 122207Z 09006KT 31/11 A2997 RMK A01 T03140114  RH  029%=      5-min Rain = 0
KHA2 122208Z 08008KT 31/11 A2997 RMK A01 T03130111  RH  029%=      5-min Rain = 0
KHA2 122209Z 07007KT 31/12 A2996 RMK A01 T03130117  RH  030%=      5-min Rain = 0
KHA2 122210Z 06009KT 31/12 A2996 RMK A01 T03130117  RH  030%=      5-min Rain = 0
KHA2 122211Z 05008KT 31/12 A2996 RMK A01 T03130115  RH  030%=      5-min Rain = 0
KHA2 122212Z 05008KT 31/11 A2996 RMK A01 T03130113  RH  029%=      5-min Rain = 0
KHA2 122213Z 05007KT 31/12 A2996 RMK A01 T03130115  RH  030%=      5-min Rain = 0
KHA2 122214Z 07007KT 31/11 A2996 RMK A01 T03120114  RH  030%=      5-min Rain = 0
KHA2 122215Z 07006KT 31/11 A2996 RMK A01 T03120113  RH  029%=      5-min Rain = 0
KHA2 122216Z 09007KT 31/12 A2996 RMK A01 T03120120  RH  031%=      5-min Rain = 0
KHA2 122217Z 10008KT 31/12 A2996 RMK A01 T03120123  RH  031%=      5-min Rain = 0
KHA2 122218Z 10008KT 31/12 A2996 RMK A01 T03130123  RH  031%=      5-min Rain = 0
KHA2 122219Z 10008KT 31/12 A2996 RMK A01 T03130118  RH  030%=      5-min Rain = 0
KHA2 122220Z 11009KT 31/12 A2996 RMK A01 T03130124  RH  031%=      5-min Rain = 0
KHA2 122221Z 10009KT 31/13 A2996 RMK A01 T03130126  RH  032%=      5-min Rain = 0
KHA2 122222Z 08007KT 31/13 A2996 RMK A01 T03130125  RH  032%=      5-min Rain = 0
KHA2 122223Z 11007KT 31/13 A2996 RMK A01 T03120126  RH  032%=      5-min Rain = 0
KHA2 122224Z 12009KT 31/12 A2996 RMK A01 T03120117  RH  030%=      5-min Rain = 0
KHA2 122225Z 12012KT 31/12 A2996 RMK A01 T03120117  RH  030%=      5-min Rain = 0
KHA2 122226Z 11010KT 31/12 A2996 RMK A01 T03120116  RH  030%=      5-min Rain = 0
KHA2 122227Z 10009KT 31/12 A2996 RMK A01 T03110118  RH  031%=      5-min Rain = 0
KHA2 122228Z 09008KT 31/12 A2996 RMK A01 T03090118  RH  031%=      5-min Rain = 0
KHA2 122229Z 11006KT 31/12 A2996 RMK A01 T03080118  RH  031%=      5-min Rain = 0
KHA2 122230Z 11012KT 31/12 A2996 RMK A01 T03070118  RH  031%=      5-min Rain = 0
KHA2 122231Z 09010KT 31/12 A2996 RMK A01 T03070123  RH  032%=      5-min Rain = 0
KHA2 122232Z 09009KT 31/12 A2996 RMK A01 T03060117  RH  031%=      5-min Rain = 0
KHA2 122233Z 11008KT 31/12 A2996 RMK A01 T03060119  RH  032%=      5-min Rain = 0
KHA2 122234Z 11011KT 31/11 A2996 RMK A01 T03060114  RH  031%=      5-min Rain = 0
KHA2 122235Z 11010KT 31/12 A2996 RMK A01 T03060115  RH  031%=      5-min Rain = 0
KHA2 122236Z 12010KT 31/12 A2996 RMK A01 T03050115  RH  031%=      5-min Rain = 0
KHA2 122237Z 12009KT 31/11 A2996 RMK A01 T03050114  RH  031%=      5-min Rain = 0
KHA2 122238Z 11009KT 31/12 A2996 RMK A01 T03050116  RH  031%=      5-min Rain = 0
KHA2 122239Z 11009KT 30/12 A2996 RMK A01 T03040116  RH  031%=      5-min Rain = 0
KHA2 122240Z 12011KT 31/12 A2996 RMK A01 T03050115  RH  031%=      5-min Rain = 0
KHA2 122241Z 12007KT 31/11 A2996 RMK A01 T03050113  RH  031%=      5-min Rain = 0
KHA2 122242Z 11007KT 31/12 A2996 RMK A01 T03060117  RH  031%=      5-min Rain = 0
KHA2 122243Z 11009KT 31/12 A2996 RMK A01 T03060122  RH  032%=      5-min Rain = 0
KHA2 122244Z 11009KT 31/11 A2996 RMK A01 T03060114  RH  031%=      5-min Rain = 0
KHA2 122245Z 11008KT 31/11 A2996 RMK A01 T03070114  RH  031%=      5-min Rain = 0
KHA2 122246Z 11007KT 31/12 A2996 RMK A01 T03080116  RH  031%=      5-min Rain = 0
KHA2 122247Z 11008KT 31/12 A2996 RMK A01 T03110122  RH  031%=      5-min Rain = 0
KHA2 122248Z 12012KT 31/12 A2996 RMK A01 T03130119  RH  030%=      5-min Rain = 0
KHA2 122249Z 12013KT 31/12 A2996 RMK A01 T03140121  RH  031%=      5-min Rain = 0
KHA2 122250Z 11015KT 32/12 A2996 RMK A01 T03150122  RH  031%=      5-min Rain = 0
KHA2 122251Z 12012KT 32/12 A2996 RMK A01 T03150121  RH  031%=      5-min Rain = 0
KHA2 122252Z 12010KT 32/12 A2996 RMK A01 T03150121  RH  031%=      5-min Rain = 0
KHA2 122253Z 12010KT 32/12 A2996 RMK A01 T03150120  RH  030%=      5-min Rain = 0
KHA2 122254Z 13012KT 32/12 A2996 RMK A01 T03150121  RH  030%=      5-min Rain = 0
KHA2 122255Z 13011KT 32/12 A2996 RMK A01 T03150119  RH  030%=      5-min Rain = 0
KHA2 122256Z 13011KT 32/12 A2996 RMK A01 T03150118  RH  030%=      5-min Rain = 0
KHA2 122257Z 12012KT 31/12 A2996 RMK A01 T03140118  RH  030%=      5-min Rain = 0
KHA2 122258Z 12011KT 31/12 A2996 RMK A01 T03140117  RH  030%=      5-min Rain = 0
KHA2 122259Z 11011KT 31/12 A2996 RMK A01 T03140118  RH  030%=      5-min Rain = 0
KHA2 122300Z 10011KT 31/12 A2996 RMK A01 T03140123  RH  031%=      5-min Rain = 0
KHA2 122301Z 10010KT 31/13 A2996 RMK A01 T03140125  RH  032%=      5-min Rain = 0
KHA2 122302Z 10011KT 31/13 A2996 RMK A01 T03130126  RH  032%=      5-min Rain = 0
KHA2 122303Z 09012KT 31/13 A2996 RMK A01 T03130125  RH  032%=      5-min Rain = 0
KHA2 122304Z 11010KT 31/12 A2996 RMK A01 T03120124  RH  032%=      5-min Rain = 0
KHA2 122305Z 10009KT 31/12 A2996 RMK A01 T03110121  RH  031%=      5-min Rain = 0
KHA2 122306Z 11012KT 31/13 A2996 RMK A01 T03120126  RH  032%=      5-min Rain = 0
KHA2 122307Z 11011KT 31/12 A2996 RMK A01 T03120119  RH  031%=      5-min Rain = 0
KHA2 122308Z 11013KT 31/12 A2996 RMK A01 T03120124  RH  032%=      5-min Rain = 0
KHA2 122309Z 11012KT 31/12 A2996 RMK A01 T03110123  RH  032%=      5-min Rain = 0
KHA2 122310Z 10012KT 31/13 A2996 RMK A01 T03100128  RH  033%=      5-min Rain = 0
KHA2 122311Z 09015KT 31/13 A2996 RMK A01 T03090129  RH  033%=      5-min Rain = 0
KHA2 122312Z 10013KT 31/13 A2996 RMK A01 T03080127  RH  033%=      5-min Rain = 0
KHA2 122313Z 10012KT 31/13 A2996 RMK A01 T03070129  RH  034%=      5-min Rain = 0
KHA2 122314Z 11012KT 31/13 A2996 RMK A01 T03070127  RH  033%=      5-min Rain = 0
KHA2 122315Z 12013KT 31/12 A2996 RMK A01 T03070124  RH  032%=      5-min Rain = 0
KHA2 122316Z 12013KT 31/12 A2996 RMK A01 T03080123  RH  032%=      5-min Rain = 0
KHA2 122317Z 12013KT 31/12 A2996 RMK A01 T03080121  RH  032%=      5-min Rain = 0
KHA2 122318Z 11013KT 31/12 A2996 RMK A01 T03070121  RH  032%=      5-min Rain = 0
KHA2 122319Z 12014KT 31/12 A2996 RMK A01 T03070122  RH  032%=      5-min Rain = 0
KHA2 122320Z 11013KT 31/12 A2996 RMK A01 T03060122  RH  032%=      5-min Rain = 0
KHA2 122321Z 11013KT 31/12 A2996 RMK A01 T03050124  RH  033%=      5-min Rain = 0
KHA2 122322Z 11013KT 31/12 A2996 RMK A01 T03050122  RH  032%=      5-min Rain = 0
KHA2 122323Z 11013KT 31/12 A2996 RMK A01 T03060123  RH  033%=      5-min Rain = 0
KHA2 122324Z 11013KT 31/13 A2996 RMK A01 T03060125  RH  033%=      5-min Rain = 0
KHA2 122325Z 12012KT 31/13 A2996 RMK A01 T03050126  RH  033%=      5-min Rain = 0
KHA2 122326Z 11014KT 31/13 A2996 RMK A01 T03050125  RH  033%=      5-min Rain = 0
KHA2 122327Z 11012KT 30/12 A2996 RMK A01 T03040124  RH  033%=      5-min Rain = 0
KHA2 122328Z 11015KT 30/13 A2996 RMK A01 T03040127  RH  034%=      5-min Rain = 0
KHA2 122329Z 11014KT 30/13 A2996 RMK A01 T03030125  RH  034%=      5-min Rain = 0
KHA2 122330Z 11013KT 30/12 A2996 RMK A01 T03020124  RH  034%=      5-min Rain = 0
KHA2 122331Z 10012KT 30/13 A2996 RMK A01 T03010126  RH  034%=      5-min Rain = 0
KHA2 122332Z 10011KT 30/13 A2996 RMK A01 T03000130  RH  035%=      5-min Rain = 0
KHA2 122333Z 11012KT 30/13 A2996 RMK A01 T03000125  RH  034%=      5-min Rain = 0
KHA2 122334Z 10012KT 30/13 A2996 RMK A01 T03000125  RH  034%=      5-min Rain = 0
KHA2 122335Z 11013KT 30/13 A2996 RMK A01 T03000127  RH  035%=      5-min Rain = 0
KHA2 122336Z 11014KT 30/13 A2996 RMK A01 T03000125  RH  034%=      5-min Rain = 0
KHA2 122337Z 10012KT 30/13 A2996 RMK A01 T02990126  RH  034%=      5-min Rain = 0
KHA2 122338Z 11011KT 30/13 A2996 RMK A01 T02990127  RH  035%=      5-min Rain = 0
KHA2 122339Z 12011KT 30/13 A2996 RMK A01 T02980126  RH  035%=      5-min Rain = 0
KHA2 122340Z 12012KT 30/13 A2996 RMK A01 T02990125  RH  034%=      5-min Rain = 0
KHA2 122341Z 11014KT 30/13 A2996 RMK A01 T02990126  RH  035%=      5-min Rain = 0
KHA2 122342Z 11016KT 30/13 A2996 RMK A01 T02980125  RH  034%=      5-min Rain = 0
KHA2 122343Z 11015KT 30/13 A2996 RMK A01 T02970126  RH  035%=      5-min Rain = 0
KHA2 122344Z 12014KT 30/13 A2996 RMK A01 T02960127  RH  035%=      5-min Rain = 0
KHA2 122345Z 12015KT 30/13 A2996 RMK A01 T02960125  RH  035%=      5-min Rain = 0
KHA2 122346Z 12014KT 30/13 A2996 RMK A01 T02950125  RH  035%=      5-min Rain = 0
KHA2 122347Z 11014KT 30/12 A2996 RMK A01 T02950124  RH  035%=      5-min Rain = 0
KHA2 122348Z 11013KT 29/13 A2996 RMK A01 T02940125  RH  035%=      5-min Rain = 0
KHA2 122349Z 11012KT 29/13 A2996 RMK A01 T02940125  RH  035%=      5-min Rain = 0
KHA2 122350Z 11012KT 29/13 A2996 RMK A01 T02930128  RH  036%=      5-min Rain = 0
KHA2 122351Z 11015KT 29/13 A2996 RMK A01 T02930126  RH  036%=      5-min Rain = 0
KHA2 122352Z 11013KT 29/13 A2996 RMK A01 T02920127  RH  036%=      5-min Rain = 0
KHA2 122353Z 11013KT 29/13 A2996 RMK A01 T02920126  RH  036%=      5-min Rain = 0
KHA2 122354Z 11013KT 29/13 A2996 RMK A01 T02920126  RH  036%=      5-min Rain = 0
KHA2 122355Z 11014KT 29/13 A2996 RMK A01 T02920125  RH  036%=      5-min Rain = 0
KHA2 122356Z 11014KT 29/12 A2996 RMK A01 T02910124  RH  036%=      5-min Rain = 0
KHA2 122357Z 11012KT 29/13 A2996 RMK A01 T02900125  RH  036%=      5-min Rain = 0
KHA2 122358Z 11011G16KT 29/13 A2996 RMK A01 T02900126  RH  036%=      5-min Rain = 0
KHA2 122359Z 11013KT 29/13 A2996 RMK A01 T02900127  RH  037%=      5-min Rain = 0
KHA2 130000Z 11014KT 29/13 A2996 RMK A01 T02890127  RH  037%=      5-min Rain = 0
KHA2 130001Z 11013KT 29/13 A2996 RMK A01 T02880126  RH  037%=      5-min Rain = 0
KHA2 130002Z 10012KT 29/13 A2996 RMK A01 T02880126  RH  037%=      5-min Rain = 0
KHA2 130003Z 10012KT 29/13 A2996 RMK A01 T02870128  RH  038%=      5-min Rain = 0
KHA2 130004Z 11012KT 29/13 A2996 RMK A01 T02860128  RH  038%=      5-min Rain = 0
KHA2 130005Z 11012KT 29/13 A2996 RMK A01 T02860126  RH  037%=      5-min Rain = 0
KHA2 130006Z 11012KT 29/13 A2996 RMK A01 T02850125  RH  037%=      5-min Rain = 0
KHA2 130007Z 11013KT 29/13 A2996 RMK A01 T02850126  RH  037%=      5-min Rain = 0
KHA2 130008Z 11011KT 29/13 A2996 RMK A01 T02850127  RH  038%=      5-min Rain = 0
KHA2 130009Z 11010KT 28/13 A2996 RMK A01 T02840128  RH  038%=      5-min Rain = 0
KHA2 130010Z 11011KT 28/13 A2996 RMK A01 T02830128  RH  038%=      5-min Rain = 0
KHA2 130011Z 11012KT 28/13 A2996 RMK A01 T02830126  RH  038%=      5-min Rain = 0
KHA2 130012Z 11010KT 28/13 A2996 RMK A01 T02820127  RH  038%=      5-min Rain = 0
KHA2 130013Z 11011KT 28/13 A2996 RMK A01 T02820129  RH  039%=      5-min Rain = 0
KHA2 130014Z 11010KT 28/13 A2996 RMK A01 T02810127  RH  039%=      5-min Rain = 0
KHA2 130015Z 11010KT 28/13 A2996 RMK A01 T02810127  RH  039%=      5-min Rain = 0
KHA2 130016Z 11010KT 28/13 A2996 RMK A01 T02800128  RH  039%=      5-min Rain = 0
KHA2 130017Z 10011KT 28/13 A2996 RMK A01 T02790127  RH  039%=      5-min Rain = 0
KHA2 130018Z 11009KT 28/13 A2996 RMK A01 T02790128  RH  039%=      5-min Rain = 0
KHA2 130019Z 12008KT 28/13 A2996 RMK A01 T02780128  RH  039%=      5-min Rain = 0
KHA2 130020Z 11012KT 28/13 A2996 RMK A01 T02770127  RH  039%=      5-min Rain = 0
KHA2 130021Z 11011KT 28/13 A2996 RMK A01 T02760125  RH  039%=      5-min Rain = 0
KHA2 130022Z 11011KT 28/13 A2996 RMK A01 T02760127  RH  040%=      5-min Rain = 0
KHA2 130023Z 11012KT 28/13 A2996 RMK A01 T02750126  RH  040%=      5-min Rain = 0
KHA2 130024Z 10013KT 28/13 A2996 RMK A01 T02750127  RH  040%=      5-min Rain = 0
KHA2 130025Z 11010KT 28/13 A2996 RMK A01 T02750128  RH  040%=      5-min Rain = 0
KHA2 130026Z 11012KT 27/13 A2996 RMK A01 T02740127  RH  040%=      5-min Rain = 0
KHA2 130027Z 11012KT 27/13 A2996 RMK A01 T02730127  RH  040%=      5-min Rain = 0
KHA2 130028Z 11010KT 27/13 A2996 RMK A01 T02720129  RH  041%=      5-min Rain = 0
KHA2 130029Z 11011KT 27/13 A2996 RMK A01 T02700127  RH  041%=      5-min Rain = 0
KHA2 130030Z 11012KT 27/13 A2996 RMK A01 T02700128  RH  041%=      5-min Rain = 0
KHA2 130031Z 11011KT 27/13 A2996 RMK A01 T02700127  RH  041%=      5-min Rain = 0
KHA2 130032Z 11012KT 27/13 A2996 RMK A01 T02690127  RH  041%=      5-min Rain = 0
KHA2 130033Z 11011KT 27/13 A2996 RMK A01 T02680127  RH  042%=      5-min Rain = 0
KHA2 130034Z 11011KT 27/13 A2996 RMK A01 T02680126  RH  042%=      5-min Rain = 0
KHA2 130035Z 11010KT 27/13 A2996 RMK A01 T02660127  RH  042%=      5-min Rain = 0
KHA2 130036Z 11011KT 27/13 A2996 RMK A01 T02660126  RH  042%=      5-min Rain = 0
KHA2 130037Z 11010KT 27/13 A2996 RMK A01 T02650127  RH  042%=      5-min Rain = 0
KHA2 130038Z 11011KT 27/13 A2996 RMK A01 T02650127  RH  042%=      5-min Rain = 0
KHA2 130039Z 11010KT 26/13 A2996 RMK A01 T02640126  RH  042%=      5-min Rain = 0
KHA2 130040Z 11010KT 26/13 A2996 RMK A01 T02640126  RH  042%=      5-min Rain = 0
KHA2 130041Z 11010KT 26/13 A2996 RMK A01 T02640126  RH  042%=      5-min Rain = 0
KHA2 130042Z 11011KT 26/13 A2996 RMK A01 T02630126  RH  042%=      5-min Rain = 0
KHA2 130043Z 11010KT 26/13 A2996 RMK A01 T02630126  RH  043%=      5-min Rain = 0
KHA2 130044Z 11009KT 26/13 A2996 RMK A01 T02620126  RH  043%=      5-min Rain = 0
KHA2 130045Z 11009KT 26/13 A2997 RMK A01 T02610125  RH  043%=      5-min Rain = 0
KHA2 130046Z 11009KT 26/13 A2997 RMK A01 T02590126  RH  043%=      5-min Rain = 0
KHA2 130047Z 11009KT 26/13 A2997 RMK A01 T02580125  RH  044%=      5-min Rain = 0
KHA2 130048Z 11009KT 26/13 A2997 RMK A01 T02570125  RH  044%=      5-min Rain = 0
KHA2 130049Z 11009KT 26/13 A2997 RMK A01 T02560126  RH  044%=      5-min Rain = 0
KHA2 130050Z 11009KT 26/13 A2997 RMK A01 T02550126  RH  045%=      5-min Rain = 0
KHA2 130051Z 11009KT 26/13 A2997 RMK A01 T02550127  RH  045%=      5-min Rain = 0
KHA2 130052Z 11009KT 25/13 A2997 RMK A01 T02540128  RH  046%=      5-min Rain = 0
KHA2 130053Z 10009KT 25/13 A2997 RMK A01 T02540128  RH  046%=      5-min Rain = 0
KHA2 130054Z 10009KT 25/13 A2997 RMK A01 T02540128  RH  046%=      5-min Rain = 0
KHA2 130055Z 10009KT 25/13 A2997 RMK A01 T02540129  RH  046%=      5-min Rain = 0
KHA2 130056Z 10009KT 25/13 A2997 RMK A01 T02530128  RH  046%=      5-min Rain = 0
KHA2 130057Z 11008KT 25/13 A2997 RMK A01 T02520128  RH  046%=      5-min Rain = 0
KHA2 130058Z 10008KT 25/13 A2997 RMK A01 T02510127  RH  046%=      5-min Rain = 0
KHA2 130059Z 10008KT 25/13 A2997 RMK A01 T02510128  RH  046%=      5-min Rain = 0
KHA2 130100Z 10009KT 25/13 A2997 RMK A01 T02500127  RH  046%=      5-min Rain = 0
KHA2 130101Z 10009KT 25/13 A2997 RMK A01 T02490128  RH  047%=      5-min Rain = 0
KHA2 130102Z 10008KT 25/13 A2997 RMK A01 T02480128  RH  047%=      5-min Rain = 0
KHA2 130103Z 10008KT 25/13 A2997 RMK A01 T02470128  RH  047%=      5-min Rain = 0
KHA2 130104Z 11008KT 25/13 A2997 RMK A01 T02460127  RH  047%=      5-min Rain = 0
KHA2 130105Z 11008KT 25/13 A2997 RMK A01 T02450126  RH  047%=      5-min Rain = 0
KHA2 130106Z 11008KT 24/13 A2997 RMK A01 T02440125  RH  047%=      5-min Rain = 0
KHA2 130107Z 11007KT 24/12 A2997 RMK A01 T02430124  RH  048%=      5-min Rain = 0
KHA2 130108Z 11008KT 24/13 A2997 RMK A01 T02420125  RH  048%=      5-min Rain = 0
KHA2 130109Z 11008KT 24/13 A2997 RMK A01 T02400125  RH  048%=      5-min Rain = 0
KHA2 130110Z 11007KT 24/13 A2997 RMK A01 T02400126  RH  049%=      5-min Rain = 0
KHA2 130111Z 11007KT 24/13 A2997 RMK A01 T02390128  RH  050%=      5-min Rain = 0
KHA2 130112Z 10008KT 24/13 A2997 RMK A01 T02380128  RH  050%=      5-min Rain = 0
KHA2 130113Z 10008KT 24/13 A2997 RMK A01 T02370128  RH  050%=      5-min Rain = 0
KHA2 130114Z 10008KT 24/13 A2997 RMK A01 T02370128  RH  050%=      5-min Rain = 0
KHA2 130115Z 10008KT 24/13 A2997 RMK A01 T02370128  RH  051%=      5-min Rain = 0
KHA2 130116Z 10008KT 24/13 A2997 RMK A01 T02370127  RH  050%=      5-min Rain = 0
KHA2 130117Z 11008KT 24/13 A2997 RMK A01 T02360126  RH  050%=      5-min Rain = 0
KHA2 130118Z 11008KT 24/13 A2997 RMK A01 T02360125  RH  050%=      5-min Rain = 0
KHA2 130119Z 11008KT 24/12 A2997 RMK A01 T02350124  RH  050%=      5-min Rain = 0
KHA2 130120Z 11008KT 23/12 A2997 RMK A01 T02340123  RH  050%=      5-min Rain = 0
KHA2 130121Z 11008KT 23/12 A2997 RMK A01 T02340123  RH  050%=      5-min Rain = 0
KHA2 130122Z 11008KT 23/12 A2997 RMK A01 T02330123  RH  050%=      5-min Rain = 0
KHA2 130123Z 11008KT 23/12 A2997 RMK A01 T02320123  RH  050%=      5-min Rain = 0
KHA2 130124Z 12008KT 23/12 A2997 RMK A01 T02320123  RH  050%=      5-min Rain = 0
KHA2 130125Z 11008KT 23/12 A2997 RMK A01 T02320123  RH  051%=      5-min Rain = 0
KHA2 130126Z 11008KT 23/12 A2997 RMK A01 T02310123  RH  051%=      5-min Rain = 0
KHA2 130127Z 12008KT 23/12 A2997 RMK A01 T02310123  RH  051%=      5-min Rain = 0
KHA2 130128Z 11008KT 23/12 A2997 RMK A01 T02310123  RH  051%=      5-min Rain = 0
KHA2 130129Z 11008KT 23/12 A2997 RMK A01 T02300123  RH  051%=      5-min Rain = 0
KHA2 130130Z 11008KT 23/12 A2997 RMK A01 T02300123  RH  051%=      5-min Rain = 0
KHA2 130131Z 11008KT 23/12 A2997 RMK A01 T02300123  RH  051%=      5-min Rain = 0
KHA2 130132Z 11008KT 23/12 A2997 RMK A01 T02300123  RH  051%=      5-min Rain = 0
KHA2 130133Z 11008KT 23/12 A2997 RMK A01 T02290123  RH  051%=      5-min Rain = 0
KHA2 130134Z 11008KT 23/12 A2997 RMK A01 T02290123  RH  051%=      5-min Rain = 0
KHA2 130135Z 11008KT 23/12 A2997 RMK A01 T02280123  RH  051%=      5-min Rain = 0
KHA2 130136Z 12007KT 23/12 A2997 RMK A01 T02280123  RH  051%=      5-min Rain = 0
KHA2 130137Z 12006KT 23/12 A2997 RMK A01 T02270123  RH  052%=      5-min Rain = 0
KHA2 130138Z 13006KT 23/12 A2997 RMK A01 T02260122  RH  052%=      5-min Rain = 0
KHA2 130139Z 12007KT 23/12 A2997 RMK A01 T02260122  RH  052%=      5-min Rain = 0
KHA2 130140Z 12007KT 23/12 A2997 RMK A01 T02250122  RH  052%=      5-min Rain = 0
KHA2 130141Z 11007KT 23/12 A2997 RMK A01 T02250122  RH  052%=      5-min Rain = 0
KHA2 130142Z 11007KT 23/12 A2997 RMK A01 T02250123  RH  052%=      5-min Rain = 0
KHA2 130143Z 11007KT 23/12 A2997 RMK A01 T02250122  RH  052%=      5-min Rain = 0
KHA2 130144Z 11007KT 22/12 A2997 RMK A01 T02240122  RH  053%=      5-min Rain = 0
KHA2 130145Z 11007KT 22/12 A2997 RMK A01 T02230122  RH  053%=      5-min Rain = 0
KHA2 130146Z 11007KT 22/12 A2997 RMK A01 T02220122  RH  053%=      5-min Rain = 0
KHA2 130147Z 11007KT 22/12 A2998 RMK A01 T02220122  RH  053%=      5-min Rain = 0
KHA2 130148Z 11007KT 22/12 A2998 RMK A01 T02210122  RH  053%=      5-min Rain = 0
KHA2 130149Z 12006KT 22/12 A2998 RMK A01 T02200122  RH  054%=      5-min Rain = 0
KHA2 130150Z 12006KT 22/12 A2998 RMK A01 T02190122  RH  054%=      5-min Rain = 0
KHA2 130151Z 12006KT 22/12 A2998 RMK A01 T02190122  RH  054%=      5-min Rain = 0
KHA2 130152Z 12006KT 22/12 A2998 RMK A01 T02180121  RH  054%=      5-min Rain = 0
KHA2 130153Z 12006KT 22/12 A2998 RMK A01 T02170121  RH  054%=      5-min Rain = 0
KHA2 130154Z 12006KT 22/12 A2998 RMK A01 T02170121  RH  054%=      5-min Rain = 0
KHA2 130155Z 12005KT 22/12 A2998 RMK A01 T02160121  RH  055%=      5-min Rain = 0
KHA2 130156Z 12005KT 22/12 A2998 RMK A01 T02150121  RH  055%=      5-min Rain = 0
KHA2 130157Z 12006KT 21/12 A2998 RMK A01 T02140120  RH  055%=      5-min Rain = 0
KHA2 130158Z 12005KT 21/12 A2998 RMK A01 T02140121  RH  055%=      5-min Rain = 0
KHA2 130159Z 12005KT 21/12 A2998 RMK A01 T02130120  RH  056%=      5-min Rain = 0
KHA2 130200Z 13005KT 21/12 A2998 RMK A01 T02120120  RH  056%=      5-min Rain = 0
KHA2 130201Z 13005KT 21/12 A2998 RMK A01 T02110120  RH  056%=      5-min Rain = 0
KHA2 130202Z 13005KT 21/12 A2998 RMK A01 T02110120  RH  056%=      5-min Rain = 0
KHA2 130203Z 13005KT 21/12 A2998 RMK A01 T02100120  RH  056%=      5-min Rain = 0
KHA2 130204Z 13005KT 21/12 A2998 RMK A01 T02090120  RH  057%=      5-min Rain = 0
KHA2 130205Z 13005KT 21/12 A2998 RMK A01 T02080120  RH  057%=      5-min Rain = 0
KHA2 130206Z 13005KT 21/12 A2999 RMK A01 T02070120  RH  057%=      5-min Rain = 0
KHA2 130207Z 13005KT 21/12 A2999 RMK A01 T02070120  RH  057%=      5-min Rain = 0
KHA2 130208Z 13005KT 21/12 A2999 RMK A01 T02070120  RH  057%=      5-min Rain = 0
KHA2 130209Z 13005KT 21/12 A2999 RMK A01 T02060120  RH  058%=      5-min Rain = 0
KHA2 130210Z 13005KT 21/12 A2999 RMK A01 T02050119  RH  057%=      5-min Rain = 0
KHA2 130211Z 13004KT 21/12 A2999 RMK A01 T02050119  RH  057%=      5-min Rain = 0
KHA2 130212Z 13004KT 21/12 A2999 RMK A01 T02050119  RH  057%=      5-min Rain = 0
KHA2 130213Z 12004KT 21/12 A2999 RMK A01 T02050119  RH  058%=      5-min Rain = 0
KHA2 130214Z 12004KT 20/12 A2999 RMK A01 T02040119  RH  058%=      5-min Rain = 0
KHA2 130215Z 12005KT 20/12 A2999 RMK A01 T02040119  RH  058%=      5-min Rain = 0
KHA2 130216Z 12005KT 20/12 A2999 RMK A01 T02040119  RH  058%=      5-min Rain = 0
KHA2 130217Z 12005KT 20/12 A2999 RMK A01 T02040119  RH  058%=      5-min Rain = 0
KHA2 130218Z 12005KT 20/12 A2999 RMK A01 T02040119  RH  058%=      5-min Rain = 0
KHA2 130219Z 12005KT 20/12 A2999 RMK A01 T02040119  RH  058%=      5-min Rain = 0
KHA2 130220Z 12005KT 20/12 A2999 RMK A01 T02040119  RH  058%=      5-min Rain = 0
KHA2 130221Z 12005KT 21/12 A2999 RMK A01 T02050119  RH  058%=      5-min Rain = 0
KHA2 130222Z 12006KT 21/12 A2999 RMK A01 T02050119  RH  058%=      5-min Rain = 0
KHA2 130223Z 12006KT 20/12 A2999 RMK A01 T02040118  RH  058%=      5-min Rain = 0
KHA2 130224Z 12006KT 21/12 A2999 RMK A01 T02050119  RH  058%=      5-min Rain = 0
KHA2 130225Z 12006KT 20/12 A2999 RMK A01 T02040118  RH  058%=      5-min Rain = 0
KHA2 130226Z 12006KT 20/12 A2999 RMK A01 T02040118  RH  058%=      5-min Rain = 0
KHA2 130227Z 12007KT 20/12 A2999 RMK A01 T02030118  RH  058%=      5-min Rain = 0
KHA2 130228Z 12007KT 20/12 A2999 RMK A01 T02010117  RH  058%=      5-min Rain = 0
KHA2 130229Z 12007KT 20/12 A2999 RMK A01 T02000117  RH  059%=      5-min Rain = 0
KHA2 130230Z 12007KT 20/12 A2999 RMK A01 T01990117  RH  059%=      5-min Rain = 0
KHA2 130231Z 12007KT 20/12 A2999 RMK A01 T01980118  RH  060%=      5-min Rain = 0
KHA2 130232Z 12007KT 20/12 A2999 RMK A01 T01970118  RH  060%=      5-min Rain = 0
KHA2 130233Z 12006KT 20/12 A2999 RMK A01 T01960118  RH  060%=      5-min Rain = 0
KHA2 130234Z 12006KT 20/12 A2999 RMK A01 T01950118  RH  061%=      5-min Rain = 0
KHA2 130235Z 13006KT 20/12 A2999 RMK A01 T01950117  RH  061%=      5-min Rain = 0
KHA2 130236Z 13006KT 19/12 A2999 RMK A01 T01940118  RH  061%=      5-min Rain = 0
KHA2 130237Z 13005KT 19/12 A2999 RMK A01 T01940117  RH  061%=      5-min Rain = 0
KHA2 130238Z 13005KT 19/12 A2999 RMK A01 T01940118  RH  061%=      5-min Rain = 0
KHA2 130239Z 13005KT 19/12 A2999 RMK A01 T01930117  RH  061%=      5-min Rain = 0
KHA2 130240Z 13005KT 19/12 A2999 RMK A01 T01930117  RH  061%=      5-min Rain = 0
KHA2 130241Z 13005KT 19/12 A2999 RMK A01 T01930116  RH  061%=      5-min Rain = 0
KHA2 130242Z 13005KT 19/12 A2999 RMK A01 T01930116  RH  061%=      5-min Rain = 0
KHA2 130243Z 13005KT 19/12 A2999 RMK A01 T01930116  RH  061%=      5-min Rain = 0
KHA2 130244Z 13005KT 19/12 A2999 RMK A01 T01930116  RH  061%=      5-min Rain = 0
KHA2 130245Z 13005KT 19/12 A2999 RMK A01 T01930116  RH  061%=      5-min Rain = 0
KHA2 130246Z 14005KT 19/12 A2999 RMK A01 T01930116  RH  061%=      5-min Rain = 0
KHA2 130247Z 13005KT 19/12 A2999 RMK A01 T01930116  RH  061%=      5-min Rain = 0
KHA2 130248Z 13006KT 19/12 A2999 RMK A01 T01930116  RH  061%=      5-min Rain = 0
KHA2 130249Z 13005KT 19/12 A2999 RMK A01 T01930116  RH  061%=      5-min Rain = 0
KHA2 130250Z 13005KT 19/12 A2999 RMK A01 T01930117  RH  061%=      5-min Rain = 0
KHA2 130251Z 13006KT 19/12 A2999 RMK A01 T01930117  RH  061%=      5-min Rain = 0
KHA2 130252Z 13006KT 19/12 A2999 RMK A01 T01930117  RH  061%=      5-min Rain = 0
KHA2 130253Z 13006KT 19/12 A2999 RMK A01 T01940117  RH  061%=      5-min Rain = 0
KHA2 130254Z 13006KT 19/12 A2999 RMK A01 T01940117  RH  061%=      5-min Rain = 0
KHA2 130255Z 13006KT 19/12 A2999 RMK A01 T01940117  RH  061%=      5-min Rain = 0
KHA2 130256Z 13006KT 19/12 A2999 RMK A01 T01940117  RH  061%=      5-min Rain = 0
KHA2 130257Z 13006KT 20/12 A2999 RMK A01 T01950117  RH  061%=      5-min Rain = 0
KHA2 130258Z 13006KT 19/12 A2999 RMK A01 T01940117  RH  061%=      5-min Rain = 0
KHA2 130259Z 14006KT 19/12 A2999 RMK A01 T01940117  RH  061%=      5-min Rain = 0
KHA2 130300Z 14006KT 19/12 A2999 RMK A01 T01940118  RH  061%=      5-min Rain = 0
KHA2 130301Z 14006KT 19/12 A2999 RMK A01 T01930117  RH  061%=      5-min Rain = 0
KHA2 130302Z 13006KT 19/12 A2999 RMK A01 T01930117  RH  061%=      5-min Rain = 0
KHA2 130303Z 13007KT 19/12 A2999 RMK A01 T01930117  RH  062%=      5-min Rain = 0
KHA2 130304Z 13007KT 19/12 A2999 RMK A01 T01920117  RH  062%=      5-min Rain = 0
KHA2 130305Z 14007KT 19/12 A2999 RMK A01 T01920117  RH  062%=      5-min Rain = 0
KHA2 130306Z 14007KT 19/12 A2999 RMK A01 T01910117  RH  062%=      5-min Rain = 0
KHA2 130307Z 14007KT 19/12 A2999 RMK A01 T01900117  RH  062%=      5-min Rain = 0
KHA2 130308Z 13007KT 19/12 A2999 RMK A01 T01890116  RH  063%=      5-min Rain = 0
KHA2 130309Z 13007KT 19/12 A2999 RMK A01 T01880116  RH  063%=      5-min Rain = 0
KHA2 130310Z 13007KT 19/12 A2999 RMK A01 T01870116  RH  063%=      5-min Rain = 0
KHA2 130311Z 14007KT 19/12 A2999 RMK A01 T01860116  RH  064%=      5-min Rain = 0
KHA2 130312Z 14007KT 19/12 A2999 RMK A01 T01850116  RH  064%=      5-min Rain = 0
KHA2 130313Z 14007KT 19/12 A2999 RMK A01 T01850116  RH  064%=      5-min Rain = 0
KHA2 130314Z 14007KT 18/12 A2999 RMK A01 T01840116  RH  064%=      5-min Rain = 0
KHA2 130315Z 14007KT 18/12 A2999 RMK A01 T01840116  RH  065%=      5-min Rain = 0
KHA2 130316Z 14006KT 18/12 A2999 RMK A01 T01830116  RH  065%=      5-min Rain = 0
KHA2 130317Z 14006KT 18/12 A30 RMK A01 T01820116  RH  065%=      5-min Rain = 0
KHA2 130318Z 14006KT 18/12 A30 RMK A01 T01810116  RH  066%=      5-min Rain = 0
KHA2 130319Z 14007KT 18/12 A30 RMK A01 T01800116  RH  066%=      5-min Rain = 0
KHA2 130320Z 14007KT 18/12 A30 RMK A01 T01790116  RH  066%=      5-min Rain = 0
KHA2 130321Z 13007KT 18/12 A30 RMK A01 T01790116  RH  067%=      5-min Rain = 0
KHA2 130322Z 14007KT 18/12 A30 RMK A01 T01790117  RH  067%=      5-min Rain = 0
KHA2 130323Z 14007KT 18/12 A30 RMK A01 T01780117  RH  067%=      5-min Rain = 0
KHA2 130324Z 14007KT 18/12 A30 RMK A01 T01780117  RH  067%=      5-min Rain = 0
KHA2 130325Z 14006KT 18/12 A30 RMK A01 T01780117  RH  067%=      5-min Rain = 0
KHA2 130326Z 14006KT 18/12 A30 RMK A01 T01780117  RH  067%=      5-min Rain = 0
KHA2 130327Z 14006KT 18/12 A30 RMK A01 T01780117  RH  068%=      5-min Rain = 0
KHA2 130328Z 14006KT 18/12 A30 RMK A01 T01780117  RH  068%=      5-min Rain = 0
KHA2 130329Z 14005KT 18/12 A30 RMK A01 T01780117  RH  068%=      5-min Rain = 0
KHA2 130330Z 09002KT 18/12 A30 RMK A01 T01780117  RH  068%=      5-min Rain = 0
KHA2 130331Z 12004KT 18/12 A30 RMK A01 T01780117  RH  068%=      5-min Rain = 0
KHA2 130332Z 13005KT 18/12 A30 RMK A01 T01780117  RH  068%=      5-min Rain = 0
KHA2 130333Z 14006KT 18/12 A30 RMK A01 T01770116  RH  067%=      5-min Rain = 0
KHA2 130334Z 14006KT 18/12 A30 RMK A01 T01780116  RH  067%=      5-min Rain = 0
KHA2 130335Z 14006KT 18/12 A30 RMK A01 T01770116  RH  067%=      5-min Rain = 0
KHA2 130336Z 14006KT 18/12 A30 RMK A01 T01780117  RH  067%=      5-min Rain = 0
KHA2 130337Z 14006KT 18/12 A30 RMK A01 T01780117  RH  068%=      5-min Rain = 0
KHA2 130338Z 15006KT 18/12 A30 RMK A01 T01780117  RH  068%=      5-min Rain = 0
KHA2 130339Z 15006KT 18/12 A30 RMK A01 T01770118  RH  068%=      5-min Rain = 0
KHA2 130340Z 14006KT 18/12 A30 RMK A01 T01780118  RH  068%=      5-min Rain = 0
KHA2 130341Z 14006KT 18/12 A30 RMK A01 T01780119  RH  068%=      5-min Rain = 0
KHA2 130342Z 14006KT 18/12 A30 RMK A01 T01780120  RH  069%=      5-min Rain = 0
KHA2 130343Z 14006KT 18/12 A30 RMK A01 T01780119  RH  068%=      5-min Rain = 0
KHA2 130344Z 14005KT 18/12 A30 RMK A01 T01780119  RH  068%=      5-min Rain = 0
KHA2 130345Z 14005KT 18/12 A30 RMK A01 T01780120  RH  069%=      5-min Rain = 0
KHA2 130346Z 14006KT 18/12 A30 RMK A01 T01780119  RH  069%=      5-min Rain = 0
KHA2 130347Z 14006KT 18/12 A30 RMK A01 T01780120  RH  069%=      5-min Rain = 0
KHA2 130348Z 14006KT 18/12 A30 RMK A01 T01780120  RH  069%=      5-min Rain = 0
KHA2 130349Z 14006KT 18/12 A30 RMK A01 T01780120  RH  069%=      5-min Rain = 0
KHA2 130350Z 14006KT 18/12 A30 RMK A01 T01780120  RH  068%=      5-min Rain = 0
KHA2 130351Z 14006KT 18/12 A30 RMK A01 T01780120  RH  068%=      5-min Rain = 0
KHA2 130352Z 14006KT 18/12 A30 RMK A01 T01790120  RH  068%=      5-min Rain = 0
KHA2 130353Z 14006KT 18/12 A30 RMK A01 T01790120  RH  068%=      5-min Rain = 0
KHA2 130354Z 15006KT 18/12 A30 RMK A01 T01800120  RH  068%=      5-min Rain = 0
KHA2 130355Z 15006KT 18/12 A30 RMK A01 T01800120  RH  068%=      5-min Rain = 0
KHA2 130356Z 15006KT 18/12 A30 RMK A01 T01800120  RH  068%=      5-min Rain = 0
KHA2 130357Z 14006KT 18/12 A30 RMK A01 T01800120  RH  068%=      5-min Rain = 0
KHA2 130358Z 14006KT 18/12 A30 RMK A01 T01790119  RH  068%=      5-min Rain = 0
KHA2 130359Z 14006KT 18/12 A30 RMK A01 T01790119  RH  068%=      5-min Rain = 0
KHA2 130400Z 14006KT 18/12 A30 RMK A01 T01790119  RH  068%=      5-min Rain = 0
KHA2 130401Z 15006KT 18/12 A30 RMK A01 T01780119  RH  068%=      5-min Rain = 0
KHA2 130402Z 15006KT 18/12 A30 RMK A01 T01780119  RH  068%=      5-min Rain = 0
KHA2 130403Z 15006KT 18/12 A30 RMK A01 T01770118  RH  068%=      5-min Rain = 0
KHA2 130404Z 15006KT 18/12 A30 RMK A01 T01770117  RH  068%=      5-min Rain = 0
KHA2 130405Z 15005KT 18/12 A30 RMK A01 T01760116  RH  068%=      5-min Rain = 0
KHA2 130406Z 15005KT 18/12 A30 RMK A01 T01760116  RH  068%=      5-min Rain = 0
KHA2 130407Z 15005KT 18/12 A30 RMK A01 T01750116  RH  068%=      5-min Rain = 0
KHA2 130408Z 15005KT 18/12 A30 RMK A01 T01750116  RH  068%=      5-min Rain = 0
KHA2 130409Z 15005KT 17/12 A30 RMK A01 T01740115  RH  068%=      5-min Rain = 0
KHA2 130410Z 15005KT 17/12 A30 RMK A01 T01740115  RH  068%=      5-min Rain = 0
KHA2 130411Z 16005KT 17/12 A30 RMK A01 T01730115  RH  069%=      5-min Rain = 0
KHA2 130412Z 16005KT 17/12 A30 RMK A01 T01730116  RH  069%=      5-min Rain = 0
KHA2 130413Z 16005KT 17/12 A30 RMK A01 T01730115  RH  069%=      5-min Rain = 0
KHA2 130414Z 16005KT 17/12 A30 RMK A01 T01730115  RH  069%=      5-min Rain = 0
KHA2 130415Z 16004KT 17/12 A30 RMK A01 T01720115  RH  069%=      5-min Rain = 0
KHA2 130416Z 16004KT 17/11 A30 RMK A01 T01710114  RH  069%=      5-min Rain = 0
KHA2 130417Z 16005KT 17/12 A30 RMK A01 T01710115  RH  069%=      5-min Rain = 0
KHA2 130418Z 16005KT 17/12 A30 RMK A01 T01710115  RH  069%=      5-min Rain = 0
KHA2 130419Z 16005KT 17/11 A30 RMK A01 T01710114  RH  069%=      5-min Rain = 0
KHA2 130420Z 16005KT 17/11 A30 RMK A01 T01710114  RH  069%=      5-min Rain = 0
KHA2 130421Z 16006KT 17/12 A30 RMK A01 T01700115  RH  070%=      5-min Rain = 0
KHA2 130422Z 15006KT 17/12 A30 RMK A01 T01700116  RH  070%=      5-min Rain = 0
KHA2 130423Z 15005KT 17/12 A30 RMK A01 T01700116  RH  070%=      5-min Rain = 0
KHA2 130424Z 15005KT 17/12 A30 RMK A01 T01700116  RH  070%=      5-min Rain = 0
KHA2 130425Z 16005KT 17/12 A30 RMK A01 T01700115  RH  070%=      5-min Rain = 0
KHA2 130426Z 15005KT 17/12 A30 RMK A01 T01700115  RH  070%=      5-min Rain = 0
KHA2 130427Z 15005KT 17/11 A30 RMK A01 T01690114  RH  070%=      5-min Rain = 0
KHA2 130428Z 15005KT 17/12 A30 RMK A01 T01690115  RH  070%=      5-min Rain = 0
KHA2 130429Z 15005KT 17/11 A30 RMK A01 T01690114  RH  070%=      5-min Rain = 0
KHA2 130430Z 15005KT 17/11 A30 RMK A01 T01680114  RH  070%=      5-min Rain = 0
KHA2 130431Z 15005KT 17/12 A30 RMK A01 T01680115  RH  070%=      5-min Rain = 0
KHA2 130432Z 16005KT 17/12 A30 RMK A01 T01690115  RH  071%=      5-min Rain = 0
KHA2 130433Z 16005KT 17/12 A30 RMK A01 T01680115  RH  071%=      5-min Rain = 0
KHA2 130434Z 16005KT 17/12 A30 RMK A01 T01680115  RH  071%=      5-min Rain = 0
KHA2 130435Z 16005KT 17/11 A30 RMK A01 T01670114  RH  071%=      5-min Rain = 0
KHA2 130436Z 16005KT 17/11 A30 RMK A01 T01670113  RH  070%=      5-min Rain = 0
KHA2 130437Z 16005KT 17/11 A30 RMK A01 T01670113  RH  070%=      5-min Rain = 0
KHA2 130438Z 16005KT 17/11 A30 RMK A01 T01670113  RH  070%=      5-min Rain = 0
KHA2 130439Z 16005KT 17/11 A30 RMK A01 T01670113  RH  070%=      5-min Rain = 0
KHA2 130440Z 16005KT 17/11 A30 RMK A01 T01670113  RH  070%=      5-min Rain = 0
KHA2 130441Z 16005KT 17/11 A30 RMK A01 T01670113  RH  070%=      5-min Rain = 0
KHA2 130442Z 16005KT 17/11 A3001 RMK A01 T01670113  RH  070%=      5-min Rain = 0
KHA2 130443Z 16005KT 17/11 A3001 RMK A01 T01680114  RH  070%=      5-min Rain = 0
KHA2 130444Z 16005KT 17/11 A3001 RMK A01 T01670114  RH  071%=      5-min Rain = 0
KHA2 130445Z 16005KT 17/11 A3001 RMK A01 T01670114  RH  070%=      5-min Rain = 0
KHA2 130446Z 15005KT 17/11 A3001 RMK A01 T01680113  RH  070%=      5-min Rain = 0
KHA2 130447Z 15004KT 17/11 A3001 RMK A01 T01670113  RH  071%=      5-min Rain = 0
KHA2 130448Z 15004KT 17/11 A3001 RMK A01 T01670113  RH  071%=      5-min Rain = 0
KHA2 130449Z 15004KT 17/11 A3001 RMK A01 T01670113  RH  070%=      5-min Rain = 0
KHA2 130450Z 15004KT 17/11 A3001 RMK A01 T01670113  RH  071%=      5-min Rain = 0
KHA2 130451Z 15004KT 17/11 A3001 RMK A01 T01660113  RH  071%=      5-min Rain = 0
KHA2 130452Z 16004KT 17/11 A3001 RMK A01 T01670113  RH  071%=      5-min Rain = 0
KHA2 130453Z 16004KT 17/11 A3001 RMK A01 T01670113  RH  070%=      5-min Rain = 0
KHA2 130454Z 16004KT 17/11 A3001 RMK A01 T01670113  RH  070%=      5-min Rain = 0
KHA2 130455Z 16004KT 17/11 A3001 RMK A01 T01670114  RH  071%=      5-min Rain = 0
KHA2 130456Z 16004KT 17/11 A3001 RMK A01 T01680114  RH  071%=      5-min Rain = 0
KHA2 130457Z 16003KT 17/11 A3001 RMK A01 T01680114  RH  070%=      5-min Rain = 0
KHA2 130458Z 16003KT 17/11 A3001 RMK A01 T01680114  RH  070%=      5-min Rain = 0
KHA2 130459Z 16004KT 17/11 A30 RMK A01 T01680114  RH  070%=      5-min Rain = 0

Page generated in 0.0779 seconds.